Observation data for Weinert on 08/06/2020      Previous  Date       Current Mesonet Observations  Soil Data  Daily Summary Page  Observations in Plain Language
KWE1 060500Z 12011G17KT 27/21 A2993 RMK A01 T02740208  RH  067%=      5-min Rain = 0
KWE1 060501Z 12013KT 27/21 A2993 RMK A01 T02740208  RH  067%=      5-min Rain = 0
KWE1 060502Z 11014KT 27/21 A2993 RMK A01 T02740208  RH  067%=      5-min Rain = 0
KWE1 060503Z 11015KT 27/21 A2993 RMK A01 T02740208  RH  067%=      5-min Rain = 0
KWE1 060504Z 12014KT 27/21 A2993 RMK A01 T02740208  RH  067%=      5-min Rain = 0
KWE1 060505Z 12010KT 27/21 A2993 RMK A01 T02740208  RH  067%=      5-min Rain = 0
KWE1 060506Z 12014G19KT 27/21 A2993 RMK A01 T02730208  RH  068%=      5-min Rain = 0
KWE1 060507Z 12012KT 27/21 A2993 RMK A01 T02730208  RH  068%=      5-min Rain = 0
KWE1 060508Z 12012KT 27/21 A2993 RMK A01 T02730208  RH  068%=      5-min Rain = 0
KWE1 060509Z 12012KT 27/21 A2993 RMK A01 T02730208  RH  068%=      5-min Rain = 0
KWE1 060510Z 12012KT 27/21 A2993 RMK A01 T02730208  RH  068%=      5-min Rain = 0
KWE1 060511Z 12011KT 27/21 A2993 RMK A01 T02730208  RH  068%=      5-min Rain = 0
KWE1 060512Z 12013KT 27/21 A2993 RMK A01 T02730209  RH  068%=      5-min Rain = 0
KWE1 060513Z 11012KT 27/21 A2993 RMK A01 T02720208  RH  068%=      5-min Rain = 0
KWE1 060514Z 12011G16KT 27/21 A2993 RMK A01 T02720208  RH  068%=      5-min Rain = 0
KWE1 060515Z 11012KT 27/21 A2993 RMK A01 T02720208  RH  068%=      5-min Rain = 0
KWE1 060516Z 12010KT 27/21 A2993 RMK A01 T02720208  RH  068%=      5-min Rain = 0
KWE1 060517Z 12011KT 27/21 A2993 RMK A01 T02720208  RH  068%=      5-min Rain = 0
KWE1 060518Z 12012G17KT 27/21 A2993 RMK A01 T02710208  RH  068%=      5-min Rain = 0
KWE1 060519Z 11011KT 27/21 A2993 RMK A01 T02710208  RH  068%=      5-min Rain = 0
KWE1 060520Z 12013KT 27/21 A2993 RMK A01 T02710208  RH  068%=      5-min Rain = 0
KWE1 060521Z 12011KT 27/21 A2993 RMK A01 T02710208  RH  068%=      5-min Rain = 0
KWE1 060522Z 12013G18KT 27/21 A2993 RMK A01 T02710208  RH  068%=      5-min Rain = 0
KWE1 060523Z 11012KT 27/21 A2993 RMK A01 T02710208  RH  068%=      5-min Rain = 0
KWE1 060524Z 11011KT 27/21 A2993 RMK A01 T02720208  RH  068%=      5-min Rain = 0
KWE1 060525Z 11012KT 27/21 A2993 RMK A01 T02710208  RH  068%=      5-min Rain = 0
KWE1 060526Z 13012KT 27/21 A2993 RMK A01 T02710208  RH  068%=      5-min Rain = 0
KWE1 060527Z 12012KT 27/21 A2993 RMK A01 T02710208  RH  068%=      5-min Rain = 0
KWE1 060528Z 12011KT 27/21 A2993 RMK A01 T02710208  RH  068%=      5-min Rain = 0
KWE1 060529Z 12015G20KT 27/21 A2993 RMK A01 T02710207  RH  068%=      5-min Rain = 0
KWE1 060530Z 12014KT 27/21 A2993 RMK A01 T02710208  RH  068%=      5-min Rain = 0
KWE1 060531Z 12011KT 27/21 A2993 RMK A01 T02710207  RH  068%=      5-min Rain = 0
KWE1 060532Z 11012G17KT 27/21 A2993 RMK A01 T02710208  RH  068%=      5-min Rain = 0
KWE1 060533Z 12010KT 27/21 A2993 RMK A01 T02710208  RH  068%=      5-min Rain = 0
KWE1 060534Z 12010KT 27/21 A2993 RMK A01 T02710207  RH  068%=      5-min Rain = 0
KWE1 060535Z 12013KT 27/21 A2993 RMK A01 T02700207  RH  068%=      5-min Rain = 0
KWE1 060536Z 12012KT 27/21 A2993 RMK A01 T02700207  RH  068%=      5-min Rain = 0
KWE1 060537Z 11013KT 27/21 A2993 RMK A01 T02700207  RH  068%=      5-min Rain = 0
KWE1 060538Z 12011KT 27/21 A2993 RMK A01 T02700207  RH  068%=      5-min Rain = 0
KWE1 060539Z 12012KT 27/21 A2993 RMK A01 T02700207  RH  068%=      5-min Rain = 0
KWE1 060540Z 13010KT 27/21 A2993 RMK A01 T02700207  RH  068%=      5-min Rain = 0
KWE1 060541Z 11012G18KT 27/21 A2993 RMK A01 T02700207  RH  068%=      5-min Rain = 0
KWE1 060542Z 12013KT 27/21 A2993 RMK A01 T02700207  RH  068%=      5-min Rain = 0
KWE1 060543Z 12013KT 27/21 A2993 RMK A01 T02700207  RH  069%=      5-min Rain = 0
KWE1 060544Z 12011KT 27/21 A2993 RMK A01 T02700207  RH  069%=      5-min Rain = 0
KWE1 060545Z 12011KT 27/21 A2993 RMK A01 T02700207  RH  069%=      5-min Rain = 0
KWE1 060546Z 12011KT 27/21 A2993 RMK A01 T02700207  RH  069%=      5-min Rain = 0
KWE1 060547Z 12011KT 27/21 A2993 RMK A01 T02690207  RH  069%=      5-min Rain = 0
KWE1 060548Z 12009KT 27/21 A2993 RMK A01 T02690207  RH  069%=      5-min Rain = 0
KWE1 060549Z 12013KT 27/21 A2993 RMK A01 T02690207  RH  069%=      5-min Rain = 0
KWE1 060550Z 12010G17KT 27/21 A2993 RMK A01 T02690207  RH  069%=      5-min Rain = 0
KWE1 060551Z 12010KT 27/21 A2993 RMK A01 T02690207  RH  069%=      5-min Rain = 0
KWE1 060552Z 12012KT 27/21 A2993 RMK A01 T02680207  RH  069%=      5-min Rain = 0
KWE1 060553Z 13009KT 27/21 A2993 RMK A01 T02680207  RH  069%=      5-min Rain = 0
KWE1 060554Z 12008KT 27/21 A2993 RMK A01 T02680207  RH  069%=      5-min Rain = 0
KWE1 060555Z 12009KT 27/21 A2993 RMK A01 T02670207  RH  069%=      5-min Rain = 0
KWE1 060556Z 12010KT 27/21 A2993 RMK A01 T02670207  RH  069%=      5-min Rain = 0
KWE1 060557Z 12013KT 27/21 A2993 RMK A01 T02680207  RH  069%=      5-min Rain = 0
KWE1 060558Z 12010KT 27/21 A2993 RMK A01 T02670207  RH  069%=      5-min Rain = 0
KWE1 060559Z 13014KT 27/21 A2993 RMK A01 T02670207  RH  069%=      5-min Rain = 0
KWE1 060600Z 12011KT 27/21 A2993 RMK A01 T02670206  RH  069%=      5-min Rain = 0
KWE1 060601Z 12012KT 27/21 A2993 RMK A01 T02670206  RH  069%=      5-min Rain = 0
KWE1 060602Z 12010KT 27/21 A2993 RMK A01 T02670206  RH  069%=      5-min Rain = 0
KWE1 060603Z 12011KT 27/21 A2993 RMK A01 T02670206  RH  069%=      5-min Rain = 0
KWE1 060604Z 12010KT 27/21 A2993 RMK A01 T02670207  RH  069%=      5-min Rain = 0
KWE1 060605Z 12011KT 27/21 A2993 RMK A01 T02670206  RH  069%=      5-min Rain = 0
KWE1 060606Z 12010KT 27/21 A2993 RMK A01 T02670206  RH  069%=      5-min Rain = 0
KWE1 060607Z 13009KT 27/21 A2993 RMK A01 T02670207  RH  070%=      5-min Rain = 0
KWE1 060608Z 13008KT 27/21 A2993 RMK A01 T02660207  RH  070%=      5-min Rain = 0
KWE1 060609Z 12009KT 27/21 A2993 RMK A01 T02660207  RH  070%=      5-min Rain = 0
KWE1 060610Z 12011KT 27/21 A2993 RMK A01 T02660207  RH  070%=      5-min Rain = 0
KWE1 060611Z 12009KT 27/21 A2993 RMK A01 T02660207  RH  070%=      5-min Rain = 0
KWE1 060612Z 12011G16KT 27/21 A2993 RMK A01 T02660207  RH  070%=      5-min Rain = 0
KWE1 060613Z 12012KT 27/21 A2993 RMK A01 T02660207  RH  070%=      5-min Rain = 0
KWE1 060614Z 12011KT 27/21 A2993 RMK A01 T02660207  RH  070%=      5-min Rain = 0
KWE1 060615Z 12012KT 27/21 A2993 RMK A01 T02660207  RH  070%=      5-min Rain = 0
KWE1 060616Z 12012KT 27/21 A2993 RMK A01 T02660207  RH  070%=      5-min Rain = 0
KWE1 060617Z 12011KT 27/21 A2993 RMK A01 T02660207  RH  070%=      5-min Rain = 0
KWE1 060618Z 12011KT 27/21 A2993 RMK A01 T02660206  RH  070%=      5-min Rain = 0
KWE1 060619Z 12011KT 27/21 A2993 RMK A01 T02660206  RH  070%=      5-min Rain = 0
KWE1 060620Z 12009KT 27/21 A2993 RMK A01 T02660206  RH  070%=      5-min Rain = 0
KWE1 060621Z 12010KT 27/21 A2993 RMK A01 T02660206  RH  070%=      5-min Rain = 0
KWE1 060622Z 12011KT 27/21 A2993 RMK A01 T02650206  RH  070%=      5-min Rain = 0
KWE1 060623Z 12010KT 27/21 A2993 RMK A01 T02650206  RH  070%=      5-min Rain = 0
KWE1 060624Z 13011KT 27/21 A2993 RMK A01 T02650206  RH  070%=      5-min Rain = 0
KWE1 060625Z 13009KT 27/21 A2993 RMK A01 T02650206  RH  070%=      5-min Rain = 0
KWE1 060626Z 13009KT 27/21 A2993 RMK A01 T02650205  RH  070%=      5-min Rain = 0
KWE1 060627Z 13009KT 27/21 A2993 RMK A01 T02650205  RH  070%=      5-min Rain = 0
KWE1 060628Z 13009KT 27/21 A2993 RMK A01 T02650205  RH  070%=      5-min Rain = 0
KWE1 060629Z 13010KT 27/21 A2993 RMK A01 T02650205  RH  070%=      5-min Rain = 0
KWE1 060630Z 12009KT 27/21 A2993 RMK A01 T02650205  RH  070%=      5-min Rain = 0
KWE1 060631Z 12009KT 27/21 A2993 RMK A01 T02650205  RH  070%=      5-min Rain = 0
KWE1 060632Z 12008KT 27/21 A2993 RMK A01 T02650205  RH  070%=      5-min Rain = 0
KWE1 060633Z 12009KT 27/21 A2993 RMK A01 T02650205  RH  070%=      5-min Rain = 0
KWE1 060634Z 12009KT 26/21 A2993 RMK A01 T02640205  RH  070%=      5-min Rain = 0
KWE1 060635Z 13010KT 26/21 A2993 RMK A01 T02640205  RH  070%=      5-min Rain = 0
KWE1 060636Z 12010KT 26/21 A2993 RMK A01 T02640205  RH  070%=      5-min Rain = 0
KWE1 060637Z 12009KT 26/21 A2993 RMK A01 T02640205  RH  070%=      5-min Rain = 0
KWE1 060638Z 12009KT 26/21 A2993 RMK A01 T02640205  RH  070%=      5-min Rain = 0
KWE1 060639Z 12009KT 26/21 A2993 RMK A01 T02640205  RH  070%=      5-min Rain = 0
KWE1 060640Z 12009KT 26/21 A2993 RMK A01 T02640205  RH  070%=      5-min Rain = 0
KWE1 060641Z 13010KT 26/21 A2993 RMK A01 T02630205  RH  070%=      5-min Rain = 0
KWE1 060642Z 13010KT 26/21 A2993 RMK A01 T02630205  RH  070%=      5-min Rain = 0
KWE1 060643Z 12008KT 26/21 A2993 RMK A01 T02630205  RH  070%=      5-min Rain = 0
KWE1 060644Z 13009KT 26/21 A2993 RMK A01 T02620205  RH  070%=      5-min Rain = 0
KWE1 060645Z 12009KT 26/21 A2993 RMK A01 T02620205  RH  071%=      5-min Rain = 0
KWE1 060646Z 13008KT 26/21 A2993 RMK A01 T02620205  RH  071%=      5-min Rain = 0
KWE1 060647Z 13008KT 26/20 A2993 RMK A01 T02620204  RH  070%=      5-min Rain = 0
KWE1 060648Z 13008KT 26/20 A2993 RMK A01 T02620204  RH  070%=      5-min Rain = 0
KWE1 060649Z 12010KT 26/20 A2993 RMK A01 T02620204  RH  070%=      5-min Rain = 0
KWE1 060650Z 13009KT 26/20 A2993 RMK A01 T02630204  RH  070%=      5-min Rain = 0
KWE1 060651Z 13008KT 26/20 A2993 RMK A01 T02630204  RH  070%=      5-min Rain = 0
KWE1 060652Z 13008KT 26/20 A2993 RMK A01 T02620204  RH  070%=      5-min Rain = 0
KWE1 060653Z 13008KT 26/20 A2993 RMK A01 T02630204  RH  070%=      5-min Rain = 0
KWE1 060654Z 13009KT 26/20 A2993 RMK A01 T02630204  RH  070%=      5-min Rain = 0
KWE1 060655Z 13009KT 26/21 A2993 RMK A01 T02630205  RH  070%=      5-min Rain = 0
KWE1 060656Z 13010KT 26/20 A2993 RMK A01 T02630204  RH  070%=      5-min Rain = 0
KWE1 060657Z 13009KT 26/20 A2993 RMK A01 T02630204  RH  070%=      5-min Rain = 0
KWE1 060658Z 13008KT 26/20 A2993 RMK A01 T02630204  RH  070%=      5-min Rain = 0
KWE1 060659Z 12009KT 26/20 A2993 RMK A01 T02630204  RH  070%=      5-min Rain = 0
KWE1 060700Z 12009KT 26/21 A2993 RMK A01 T02630205  RH  071%=      5-min Rain = 0
KWE1 060701Z 13009KT 26/21 A2993 RMK A01 T02620205  RH  071%=      5-min Rain = 0
KWE1 060702Z 14008KT 26/21 A2993 RMK A01 T02620205  RH  071%=      5-min Rain = 0
KWE1 060703Z 13008KT 26/21 A2993 RMK A01 T02630205  RH  070%=      5-min Rain = 0
KWE1 060704Z 14010KT 26/20 A2993 RMK A01 T02630204  RH  070%=      5-min Rain = 0
KWE1 060705Z 13009KT 26/20 A2993 RMK A01 T02630204  RH  070%=      5-min Rain = 0
KWE1 060706Z 13009KT 26/20 A2993 RMK A01 T02630204  RH  070%=      5-min Rain = 0
KWE1 060707Z 13008KT 26/21 A2993 RMK A01 T02630205  RH  070%=      5-min Rain = 0
KWE1 060708Z 13009KT 26/20 A2993 RMK A01 T02630204  RH  070%=      5-min Rain = 0
KWE1 060709Z 13008KT 26/20 A2993 RMK A01 T02630204  RH  070%=      5-min Rain = 0
KWE1 060710Z 12006KT 26/21 A2993 RMK A01 T02630205  RH  070%=      5-min Rain = 0
KWE1 060711Z 13007KT 26/20 A2993 RMK A01 T02630204  RH  070%=      5-min Rain = 0
KWE1 060712Z 14008KT 26/20 A2993 RMK A01 T02630204  RH  070%=      5-min Rain = 0
KWE1 060713Z 12009KT 26/20 A2993 RMK A01 T02620204  RH  070%=      5-min Rain = 0
KWE1 060714Z 13008KT 26/20 A2993 RMK A01 T02620204  RH  070%=      5-min Rain = 0
KWE1 060715Z 13008KT 26/20 A2993 RMK A01 T02620204  RH  070%=      5-min Rain = 0
KWE1 060716Z 13009KT 26/20 A2993 RMK A01 T02620204  RH  070%=      5-min Rain = 0
KWE1 060717Z 13008KT 26/20 A2993 RMK A01 T02620204  RH  070%=      5-min Rain = 0
KWE1 060718Z 12010KT 26/20 A2993 RMK A01 T02620204  RH  070%=      5-min Rain = 0
KWE1 060719Z 12008KT 26/20 A2993 RMK A01 T02620204  RH  070%=      5-min Rain = 0
KWE1 060720Z 12009KT 26/20 A2993 RMK A01 T02620204  RH  070%=      5-min Rain = 0
KWE1 060721Z 12008KT 26/20 A2993 RMK A01 T02620204  RH  070%=      5-min Rain = 0
KWE1 060722Z 12008KT 26/20 A2993 RMK A01 T02620203  RH  070%=      5-min Rain = 0
KWE1 060723Z 13007KT 26/20 A2993 RMK A01 T02620204  RH  070%=      5-min Rain = 0
KWE1 060724Z 12009KT 26/20 A2993 RMK A01 T02610204  RH  071%=      5-min Rain = 0
KWE1 060725Z 13008KT 26/20 A2993 RMK A01 T02610204  RH  071%=      5-min Rain = 0
KWE1 060726Z 13008KT 26/20 A2993 RMK A01 T02610204  RH  071%=      5-min Rain = 0
KWE1 060727Z 12009KT 26/20 A2993 RMK A01 T02610204  RH  071%=      5-min Rain = 0
KWE1 060728Z 12008KT 26/20 A2993 RMK A01 T02610204  RH  071%=      5-min Rain = 0
KWE1 060729Z 13008KT 26/20 A2993 RMK A01 T02610204  RH  071%=      5-min Rain = 0
KWE1 060730Z 13009KT 26/20 A2993 RMK A01 T02610203  RH  071%=      5-min Rain = 0
KWE1 060731Z 12007KT 26/20 A2993 RMK A01 T02610204  RH  071%=      5-min Rain = 0
KWE1 060732Z 13009KT 26/20 A2993 RMK A01 T02610203  RH  071%=      5-min Rain = 0
KWE1 060733Z 13008KT 26/20 A2993 RMK A01 T02610203  RH  071%=      5-min Rain = 0
KWE1 060734Z 13008KT 26/20 A2993 RMK A01 T02610204  RH  071%=      5-min Rain = 0
KWE1 060735Z 13008KT 26/20 A2993 RMK A01 T02610204  RH  071%=      5-min Rain = 0
KWE1 060736Z 13008KT 26/20 A2993 RMK A01 T02610203  RH  071%=      5-min Rain = 0
KWE1 060737Z 13008KT 26/20 A2993 RMK A01 T02610203  RH  071%=      5-min Rain = 0
KWE1 060738Z 13009KT 26/20 A2993 RMK A01 T02610204  RH  071%=      5-min Rain = 0
KWE1 060739Z 13008KT 26/20 A2993 RMK A01 T02600204  RH  071%=      5-min Rain = 0
KWE1 060740Z 13009KT 26/20 A2993 RMK A01 T02600203  RH  071%=      5-min Rain = 0
KWE1 060741Z 13007KT 26/20 A2993 RMK A01 T02600203  RH  071%=      5-min Rain = 0
KWE1 060742Z 13008KT 26/20 A2993 RMK A01 T02600203  RH  071%=      5-min Rain = 0
KWE1 060743Z 13009KT 26/20 A2993 RMK A01 T02600203  RH  071%=      5-min Rain = 0
KWE1 060744Z 12009KT 26/20 A2993 RMK A01 T02600203  RH  071%=      5-min Rain = 0
KWE1 060745Z 13009KT 26/20 A2993 RMK A01 T02600203  RH  071%=      5-min Rain = 0
KWE1 060746Z 13008KT 26/20 A2993 RMK A01 T02600203  RH  071%=      5-min Rain = 0
KWE1 060747Z 14009KT 26/20 A2993 RMK A01 T02600203  RH  071%=      5-min Rain = 0
KWE1 060748Z 14009KT 26/20 A2993 RMK A01 T02600203  RH  071%=      5-min Rain = 0
KWE1 060749Z 14009KT 26/20 A2993 RMK A01 T02610203  RH  071%=      5-min Rain = 0
KWE1 060750Z 14010KT 26/20 A2993 RMK A01 T02600203  RH  071%=      5-min Rain = 0
KWE1 060751Z 14008KT 26/20 A2993 RMK A01 T02600203  RH  071%=      5-min Rain = 0
KWE1 060752Z 14008KT 26/20 A2993 RMK A01 T02600203  RH  070%=      5-min Rain = 0
KWE1 060753Z 13008KT 26/20 A2993 RMK A01 T02600202  RH  070%=      5-min Rain = 0
KWE1 060754Z 14007KT 26/20 A2994 RMK A01 T02600202  RH  070%=      5-min Rain = 0
KWE1 060755Z 14008KT 26/20 A2994 RMK A01 T02600202  RH  070%=      5-min Rain = 0
KWE1 060756Z 14007KT 26/20 A2994 RMK A01 T02600202  RH  070%=      5-min Rain = 0
KWE1 060757Z 15008KT 26/20 A2993 RMK A01 T02600202  RH  070%=      5-min Rain = 0
KWE1 060758Z 14007KT 26/20 A2994 RMK A01 T02600202  RH  070%=      5-min Rain = 0
KWE1 060759Z 14007KT 26/20 A2993 RMK A01 T02600202  RH  070%=      5-min Rain = 0
KWE1 060800Z 14008KT 26/20 A2994 RMK A01 T02600202  RH  071%=      5-min Rain = 0
KWE1 060801Z 14008KT 26/20 A2994 RMK A01 T02600202  RH  071%=      5-min Rain = 0
KWE1 060802Z 14007KT 26/20 A2994 RMK A01 T02590202  RH  070%=      5-min Rain = 0
KWE1 060803Z 14008KT 26/20 A2994 RMK A01 T02600202  RH  070%=      5-min Rain = 0
KWE1 060804Z 14009KT 26/20 A2994 RMK A01 T02590201  RH  070%=      5-min Rain = 0
KWE1 060805Z 14008KT 26/20 A2994 RMK A01 T02600202  RH  070%=      5-min Rain = 0
KWE1 060806Z 13008KT 26/20 A2994 RMK A01 T02600202  RH  070%=      5-min Rain = 0
KWE1 060807Z 14007KT 26/20 A2994 RMK A01 T02600202  RH  070%=      5-min Rain = 0
KWE1 060808Z 14007KT 26/20 A2994 RMK A01 T02600201  RH  070%=      5-min Rain = 0
KWE1 060809Z 14007KT 26/20 A2994 RMK A01 T02590202  RH  070%=      5-min Rain = 0
KWE1 060810Z 14008KT 26/20 A2994 RMK A01 T02590201  RH  070%=      5-min Rain = 0
KWE1 060811Z 14009KT 26/20 A2994 RMK A01 T02590202  RH  071%=      5-min Rain = 0
KWE1 060812Z 14007KT 26/20 A2994 RMK A01 T02590202  RH  071%=      5-min Rain = 0
KWE1 060813Z 14007KT 26/20 A2994 RMK A01 T02590201  RH  070%=      5-min Rain = 0
KWE1 060814Z 14008KT 26/20 A2994 RMK A01 T02590201  RH  070%=      5-min Rain = 0
KWE1 060815Z 14008KT 26/20 A2994 RMK A01 T02590201  RH  071%=      5-min Rain = 0
KWE1 060816Z 14009KT 26/20 A2994 RMK A01 T02590201  RH  070%=      5-min Rain = 0
KWE1 060817Z 13008KT 26/20 A2994 RMK A01 T02590201  RH  070%=      5-min Rain = 0
KWE1 060818Z 14009KT 26/20 A2994 RMK A01 T02590201  RH  070%=      5-min Rain = 0
KWE1 060819Z 14009KT 26/20 A2994 RMK A01 T02590201  RH  070%=      5-min Rain = 0
KWE1 060820Z 14009KT 26/20 A2994 RMK A01 T02590201  RH  070%=      5-min Rain = 0
KWE1 060821Z 14006KT 26/20 A2994 RMK A01 T02590201  RH  070%=      5-min Rain = 0
KWE1 060822Z 14008KT 26/20 A2994 RMK A01 T02590201  RH  070%=      5-min Rain = 0
KWE1 060823Z 14007KT 26/20 A2994 RMK A01 T02590201  RH  070%=      5-min Rain = 0
KWE1 060824Z 14007KT 26/20 A2994 RMK A01 T02590200  RH  070%=      5-min Rain = 0
KWE1 060825Z 13007KT 26/20 A2994 RMK A01 T02590201  RH  070%=      5-min Rain = 0
KWE1 060826Z 14008KT 26/20 A2994 RMK A01 T02590201  RH  070%=      5-min Rain = 0
KWE1 060827Z 14008KT 26/20 A2994 RMK A01 T02590200  RH  070%=      5-min Rain = 0
KWE1 060828Z 14008KT 26/20 A2994 RMK A01 T02590201  RH  070%=      5-min Rain = 0
KWE1 060829Z 13007KT 26/20 A2994 RMK A01 T02590200  RH  070%=      5-min Rain = 0
KWE1 060830Z 14008KT 26/20 A2994 RMK A01 T02580200  RH  070%=      5-min Rain = 0
KWE1 060831Z 14009KT 26/20 A2994 RMK A01 T02580200  RH  070%=      5-min Rain = 0
KWE1 060832Z 14009KT 26/20 A2994 RMK A01 T02580200  RH  070%=      5-min Rain = 0
KWE1 060833Z 14008KT 26/20 A2994 RMK A01 T02580200  RH  070%=      5-min Rain = 0
KWE1 060834Z 14009KT 26/20 A2994 RMK A01 T02580199  RH  070%=      5-min Rain = 0
KWE1 060835Z 14008KT 26/20 A2994 RMK A01 T02580199  RH  070%=      5-min Rain = 0
KWE1 060836Z 14007KT 26/20 A2994 RMK A01 T02580199  RH  070%=      5-min Rain = 0
KWE1 060837Z 14008KT 26/20 A2994 RMK A01 T02590199  RH  070%=      5-min Rain = 0
KWE1 060838Z 14007KT 26/20 A2994 RMK A01 T02580199  RH  070%=      5-min Rain = 0
KWE1 060839Z 14008KT 26/20 A2994 RMK A01 T02580199  RH  070%=      5-min Rain = 0
KWE1 060840Z 14007KT 26/20 A2994 RMK A01 T02580199  RH  070%=      5-min Rain = 0
KWE1 060841Z 15008KT 26/20 A2994 RMK A01 T02580199  RH  070%=      5-min Rain = 0
KWE1 060842Z 14009KT 26/20 A2994 RMK A01 T02580199  RH  070%=      5-min Rain = 0
KWE1 060843Z 14009KT 26/20 A2994 RMK A01 T02580199  RH  070%=      5-min Rain = 0
KWE1 060844Z 14008KT 26/20 A2994 RMK A01 T02580199  RH  070%=      5-min Rain = 0
KWE1 060845Z 14009KT 26/20 A2994 RMK A01 T02580199  RH  070%=      5-min Rain = 0
KWE1 060846Z 14009KT 26/20 A2994 RMK A01 T02580199  RH  070%=      5-min Rain = 0
KWE1 060847Z 14009KT 26/20 A2994 RMK A01 T02580199  RH  070%=      5-min Rain = 0
KWE1 060848Z 14009KT 26/20 A2994 RMK A01 T02580199  RH  070%=      5-min Rain = 0
KWE1 060849Z 14009KT 26/20 A2994 RMK A01 T02590200  RH  070%=      5-min Rain = 0
KWE1 060850Z 14009KT 26/20 A2994 RMK A01 T02580199  RH  070%=      5-min Rain = 0
KWE1 060851Z 14010KT 26/20 A2994 RMK A01 T02580199  RH  070%=      5-min Rain = 0
KWE1 060852Z 15009KT 26/20 A2994 RMK A01 T02580198  RH  070%=      5-min Rain = 0
KWE1 060853Z 15009KT 26/20 A2994 RMK A01 T02570198  RH  070%=      5-min Rain = 0
KWE1 060854Z 14010KT 26/20 A2994 RMK A01 T02580198  RH  070%=      5-min Rain = 0
KWE1 060855Z 15009KT 26/20 A2994 RMK A01 T02580198  RH  070%=      5-min Rain = 0
KWE1 060856Z 14009KT 26/20 A2994 RMK A01 T02580198  RH  070%=      5-min Rain = 0
KWE1 060857Z 14009KT 26/20 A2994 RMK A01 T02580198  RH  070%=      5-min Rain = 0
KWE1 060858Z 14010KT 26/20 A2994 RMK A01 T02580198  RH  070%=      5-min Rain = 0
KWE1 060859Z 15009KT 26/20 A2994 RMK A01 T02570198  RH  069%=      5-min Rain = 0
KWE1 060900Z 14009KT 26/20 A2994 RMK A01 T02570198  RH  069%=      5-min Rain = 0
KWE1 060901Z 14008KT 26/20 A2994 RMK A01 T02570198  RH  070%=      5-min Rain = 0
KWE1 060902Z 14009KT 26/20 A2994 RMK A01 T02570198  RH  070%=      5-min Rain = 0
KWE1 060903Z 14009KT 26/20 A2994 RMK A01 T02570198  RH  070%=      5-min Rain = 0
KWE1 060904Z 14009KT 26/20 A2994 RMK A01 T02570198  RH  070%=      5-min Rain = 0
KWE1 060905Z 14009KT 26/20 A2994 RMK A01 T02570198  RH  070%=      5-min Rain = 0
KWE1 060906Z 14008KT 26/20 A2994 RMK A01 T02570197  RH  070%=      5-min Rain = 0
KWE1 060907Z 14009KT 26/20 A2994 RMK A01 T02570197  RH  069%=      5-min Rain = 0
KWE1 060908Z 14008KT 26/20 A2994 RMK A01 T02570197  RH  069%=      5-min Rain = 0
KWE1 060909Z 14008KT 26/20 A2994 RMK A01 T02570196  RH  069%=      5-min Rain = 0
KWE1 060910Z 14009KT 26/20 A2994 RMK A01 T02570196  RH  069%=      5-min Rain = 0
KWE1 060911Z 14010KT 26/20 A2994 RMK A01 T02570196  RH  069%=      5-min Rain = 0
KWE1 060912Z 14009KT 26/20 A2994 RMK A01 T02570196  RH  069%=      5-min Rain = 0
KWE1 060913Z 14007KT 26/20 A2994 RMK A01 T02570196  RH  069%=      5-min Rain = 0
KWE1 060914Z 14008KT 26/20 A2994 RMK A01 T02570195  RH  069%=      5-min Rain = 0
KWE1 060915Z 14009KT 26/20 A2994 RMK A01 T02570196  RH  069%=      5-min Rain = 0
KWE1 060916Z 14009KT 26/20 A2994 RMK A01 T02570195  RH  069%=      5-min Rain = 0
KWE1 060917Z 14010KT 26/20 A2994 RMK A01 T02570195  RH  069%=      5-min Rain = 0
KWE1 060918Z 14008KT 26/20 A2994 RMK A01 T02570195  RH  068%=      5-min Rain = 0
KWE1 060919Z 14009KT 26/20 A2994 RMK A01 T02580195  RH  068%=      5-min Rain = 0
KWE1 060920Z 14009KT 26/19 A2994 RMK A01 T02570194  RH  068%=      5-min Rain = 0
KWE1 060921Z 14008KT 26/19 A2994 RMK A01 T02570194  RH  068%=      5-min Rain = 0
KWE1 060922Z 14008KT 26/19 A2994 RMK A01 T02570194  RH  068%=      5-min Rain = 0
KWE1 060923Z 15008KT 26/20 A2994 RMK A01 T02570195  RH  068%=      5-min Rain = 0
KWE1 060924Z 14009KT 26/19 A2994 RMK A01 T02570193  RH  068%=      5-min Rain = 0
KWE1 060925Z 14009KT 26/19 A2994 RMK A01 T02570193  RH  068%=      5-min Rain = 0
KWE1 060926Z 14008KT 26/19 A2994 RMK A01 T02570193  RH  067%=      5-min Rain = 0
KWE1 060927Z 14009KT 26/19 A2994 RMK A01 T02570192  RH  067%=      5-min Rain = 0
KWE1 060928Z 14009KT 26/19 A2994 RMK A01 T02570192  RH  067%=      5-min Rain = 0
KWE1 060929Z 14008KT 26/19 A2994 RMK A01 T02570192  RH  067%=      5-min Rain = 0
KWE1 060930Z 14008KT 26/19 A2994 RMK A01 T02570192  RH  067%=      5-min Rain = 0
KWE1 060931Z 14008KT 26/19 A2994 RMK A01 T02570192  RH  067%=      5-min Rain = 0
KWE1 060932Z 14009KT 26/19 A2994 RMK A01 T02570191  RH  067%=      5-min Rain = 0
KWE1 060933Z 15008KT 26/19 A2994 RMK A01 T02570190  RH  067%=      5-min Rain = 0
KWE1 060934Z 14009KT 26/19 A2994 RMK A01 T02570189  RH  066%=      5-min Rain = 0
KWE1 060935Z 14008KT 26/19 A2994 RMK A01 T02570189  RH  066%=      5-min Rain = 0
KWE1 060936Z 14008KT 26/19 A2994 RMK A01 T02570189  RH  066%=      5-min Rain = 0
KWE1 060937Z 14008KT 26/19 A2994 RMK A01 T02570189  RH  066%=      5-min Rain = 0
KWE1 060938Z 15009KT 26/19 A2994 RMK A01 T02570188  RH  066%=      5-min Rain = 0
KWE1 060939Z 14009KT 26/19 A2994 RMK A01 T02570187  RH  065%=      5-min Rain = 0
KWE1 060940Z 14007KT 26/19 A2994 RMK A01 T02570188  RH  066%=      5-min Rain = 0
KWE1 060941Z 14008KT 26/19 A2994 RMK A01 T02570188  RH  065%=      5-min Rain = 0
KWE1 060942Z 14007KT 26/19 A2994 RMK A01 T02570187  RH  065%=      5-min Rain = 0
KWE1 060943Z 14008KT 26/19 A2994 RMK A01 T02570188  RH  065%=      5-min Rain = 0
KWE1 060944Z 15007KT 26/19 A2994 RMK A01 T02570187  RH  065%=      5-min Rain = 0
KWE1 060945Z 14008KT 26/19 A2994 RMK A01 T02570187  RH  065%=      5-min Rain = 0
KWE1 060946Z 15008KT 26/19 A2994 RMK A01 T02570188  RH  065%=      5-min Rain = 0
KWE1 060947Z 14008KT 26/19 A2994 RMK A01 T02570187  RH  066%=      5-min Rain = 0
KWE1 060948Z 14008KT 26/19 A2994 RMK A01 T02560188  RH  066%=      5-min Rain = 0
KWE1 060949Z 14009KT 26/19 A2994 RMK A01 T02560187  RH  066%=      5-min Rain = 0
KWE1 060950Z 14007KT 26/19 A2994 RMK A01 T02560186  RH  065%=      5-min Rain = 0
KWE1 060951Z 15006KT 26/19 A2994 RMK A01 T02560186  RH  065%=      5-min Rain = 0
KWE1 060952Z 15007KT 26/19 A2994 RMK A01 T02560186  RH  065%=      5-min Rain = 0
KWE1 060953Z 15008KT 26/19 A2994 RMK A01 T02560186  RH  065%=      5-min Rain = 0
KWE1 060954Z 15008KT 26/19 A2994 RMK A01 T02560186  RH  065%=      5-min Rain = 0
KWE1 060955Z 15008KT 26/19 A2994 RMK A01 T02560185  RH  065%=      5-min Rain = 0
KWE1 060956Z 15008KT 26/19 A2994 RMK A01 T02560185  RH  065%=      5-min Rain = 0
KWE1 060957Z 15008KT 26/18 A2994 RMK A01 T02560184  RH  064%=      5-min Rain = 0
KWE1 060958Z 15009KT 26/18 A2994 RMK A01 T02560182  RH  064%=      5-min Rain = 0
KWE1 060959Z 15008KT 26/18 A2994 RMK A01 T02570183  RH  064%=      5-min Rain = 0
KWE1 061000Z 15009KT 26/18 A2994 RMK A01 T02570182  RH  063%=      5-min Rain = 0
KWE1 061001Z 15007KT 26/18 A2994 RMK A01 T02570181  RH  063%=      5-min Rain = 0
KWE1 061002Z 15007KT 26/18 A2994 RMK A01 T02570181  RH  063%=      5-min Rain = 0
KWE1 061003Z 15006KT 26/18 A2994 RMK A01 T02570181  RH  063%=      5-min Rain = 0
KWE1 061004Z 15006KT 26/18 A2994 RMK A01 T02570182  RH  063%=      5-min Rain = 0
KWE1 061005Z 15008KT 26/18 A2994 RMK A01 T02570182  RH  063%=      5-min Rain = 0
KWE1 061006Z 15008KT 26/18 A2994 RMK A01 T02570181  RH  063%=      5-min Rain = 0
KWE1 061007Z 15009KT 26/18 A2994 RMK A01 T02560179  RH  062%=      5-min Rain = 0
KWE1 061008Z 15007KT 26/18 A2994 RMK A01 T02570179  RH  062%=      5-min Rain = 0
KWE1 061009Z 16006KT 26/18 A2994 RMK A01 T02570180  RH  062%=      5-min Rain = 0
KWE1 061010Z 15007KT 26/18 A2994 RMK A01 T02570181  RH  063%=      5-min Rain = 0
KWE1 061011Z 16007KT 26/18 A2994 RMK A01 T02570180  RH  063%=      5-min Rain = 0
KWE1 061012Z 16007KT 26/18 A2994 RMK A01 T02560179  RH  062%=      5-min Rain = 0
KWE1 061013Z 15008KT 26/18 A2994 RMK A01 T02560178  RH  062%=      5-min Rain = 0
KWE1 061014Z 16009KT 26/18 A2994 RMK A01 T02560177  RH  061%=      5-min Rain = 0
KWE1 061015Z 16009KT 26/17 A2994 RMK A01 T02580174  RH  060%=      5-min Rain = 0
KWE1 061016Z 15009KT 26/18 A2994 RMK A01 T02590176  RH  060%=      5-min Rain = 0
KWE1 061017Z 15008KT 26/18 A2994 RMK A01 T02590176  RH  060%=      5-min Rain = 0
KWE1 061018Z 16009KT 26/18 A2994 RMK A01 T02590176  RH  060%=      5-min Rain = 0
KWE1 061019Z 16008KT 26/17 A2994 RMK A01 T02600174  RH  059%=      5-min Rain = 0
KWE1 061020Z 16009KT 26/18 A2994 RMK A01 T02590175  RH  060%=      5-min Rain = 0
KWE1 061021Z 15008KT 26/17 A2994 RMK A01 T02590174  RH  059%=      5-min Rain = 0
KWE1 061022Z 16008KT 26/18 A2994 RMK A01 T02590176  RH  060%=      5-min Rain = 0
KWE1 061023Z 16006KT 26/18 A2994 RMK A01 T02590176  RH  060%=      5-min Rain = 0
KWE1 061024Z 16008KT 26/17 A2994 RMK A01 T02580174  RH  060%=      5-min Rain = 0
KWE1 061025Z 15008KT 26/17 A2994 RMK A01 T02580173  RH  060%=      5-min Rain = 0
KWE1 061026Z 17008KT 26/17 A2994 RMK A01 T02580173  RH  059%=      5-min Rain = 0
KWE1 061027Z 16009KT 26/17 A2994 RMK A01 T02580171  RH  059%=      5-min Rain = 0
KWE1 061028Z 16009KT 26/17 A2994 RMK A01 T02590170  RH  058%=      5-min Rain = 0
KWE1 061029Z 16009KT 26/17 A2994 RMK A01 T02590170  RH  058%=      5-min Rain = 0
KWE1 061030Z 16008KT 26/17 A2994 RMK A01 T02590170  RH  058%=      5-min Rain = 0
KWE1 061031Z 16008KT 26/17 A2994 RMK A01 T02590169  RH  058%=      5-min Rain = 0
KWE1 061032Z 16009KT 26/17 A2994 RMK A01 T02590168  RH  057%=      5-min Rain = 0
KWE1 061033Z 16008KT 26/17 A2994 RMK A01 T02590168  RH  057%=      5-min Rain = 0
KWE1 061034Z 16009KT 26/17 A2994 RMK A01 T02600168  RH  057%=      5-min Rain = 0
KWE1 061035Z 16009KT 26/17 A2994 RMK A01 T02600168  RH  057%=      5-min Rain = 0
KWE1 061036Z 17008KT 26/17 A2994 RMK A01 T02610167  RH  056%=      5-min Rain = 0
KWE1 061037Z 16009KT 26/17 A2994 RMK A01 T02610167  RH  056%=      5-min Rain = 0
KWE1 061038Z 16009KT 26/17 A2994 RMK A01 T02610166  RH  056%=      5-min Rain = 0
KWE1 061039Z 16008KT 26/17 A2994 RMK A01 T02620166  RH  056%=      5-min Rain = 0
KWE1 061040Z 16009KT 26/17 A2994 RMK A01 T02620167  RH  056%=      5-min Rain = 0
KWE1 061041Z 16009KT 26/17 A2994 RMK A01 T02620166  RH  056%=      5-min Rain = 0
KWE1 061042Z 16010KT 26/17 A2994 RMK A01 T02620166  RH  055%=      5-min Rain = 0
KWE1 061043Z 16008KT 26/17 A2994 RMK A01 T02620165  RH  055%=      5-min Rain = 0
KWE1 061044Z 16008KT 26/17 A2994 RMK A01 T02630166  RH  055%=      5-min Rain = 0
KWE1 061045Z 16008KT 26/17 A2994 RMK A01 T02620167  RH  056%=      5-min Rain = 0
KWE1 061046Z 17010KT 26/17 A2994 RMK A01 T02610166  RH  056%=      5-min Rain = 0
KWE1 061047Z 17009KT 26/17 A2994 RMK A01 T02610165  RH  056%=      5-min Rain = 0
KWE1 061048Z 16009KT 26/17 A2994 RMK A01 T02610165  RH  055%=      5-min Rain = 0
KWE1 061049Z 17009KT 26/16 A2994 RMK A01 T02620164  RH  055%=      5-min Rain = 0
KWE1 061050Z 17009KT 26/16 A2994 RMK A01 T02620164  RH  055%=      5-min Rain = 0
KWE1 061051Z 17009KT 26/16 A2994 RMK A01 T02630164  RH  055%=      5-min Rain = 0
KWE1 061052Z 16009KT 26/16 A2994 RMK A01 T02630164  RH  055%=      5-min Rain = 0
KWE1 061053Z 16010KT 26/16 A2994 RMK A01 T02630164  RH  055%=      5-min Rain = 0
KWE1 061054Z 17008KT 26/17 A2994 RMK A01 T02630165  RH  055%=      5-min Rain = 0
KWE1 061055Z 17008KT 26/17 A2994 RMK A01 T02620165  RH  055%=      5-min Rain = 0
KWE1 061056Z 17009KT 26/16 A2994 RMK A01 T02610164  RH  055%=      5-min Rain = 0
KWE1 061057Z 17010KT 26/16 A2994 RMK A01 T02610163  RH  055%=      5-min Rain = 0
KWE1 061058Z 17009KT 26/16 A2994 RMK A01 T02620164  RH  055%=      5-min Rain = 0
KWE1 061059Z 16009KT 26/16 A2994 RMK A01 T02620163  RH  055%=      5-min Rain = 0
KWE1 061100Z 17010KT 26/16 A2994 RMK A01 T02620163  RH  054%=      5-min Rain = 0
KWE1 061101Z 17011KT 26/16 A2994 RMK A01 T02620163  RH  054%=      5-min Rain = 0
KWE1 061102Z 17010KT 26/16 A2994 RMK A01 T02620163  RH  054%=      5-min Rain = 0
KWE1 061103Z 17010KT 26/16 A2994 RMK A01 T02620162  RH  054%=      5-min Rain = 0
KWE1 061104Z 17009KT 26/16 A2994 RMK A01 T02630162  RH  054%=      5-min Rain = 0
KWE1 061105Z 16009KT 26/16 A2994 RMK A01 T02630162  RH  054%=      5-min Rain = 0
KWE1 061106Z 17010KT 26/16 A2994 RMK A01 T02620162  RH  054%=      5-min Rain = 0
KWE1 061107Z 17011KT 26/16 A2994 RMK A01 T02620162  RH  054%=      5-min Rain = 0
KWE1 061108Z 16011KT 26/16 A2994 RMK A01 T02620163  RH  054%=      5-min Rain = 0
KWE1 061109Z 17011KT 26/16 A2994 RMK A01 T02620162  RH  054%=      5-min Rain = 0
KWE1 061110Z 17010KT 26/16 A2994 RMK A01 T02620162  RH  054%=      5-min Rain = 0
KWE1 061111Z 16010KT 26/16 A2994 RMK A01 T02620162  RH  054%=      5-min Rain = 0
KWE1 061112Z 17011KT 26/16 A2994 RMK A01 T02610162  RH  054%=      5-min Rain = 0
KWE1 061113Z 17011KT 26/16 A2994 RMK A01 T02610162  RH  054%=      5-min Rain = 0
KWE1 061114Z 17010KT 26/16 A2994 RMK A01 T02610162  RH  054%=      5-min Rain = 0
KWE1 061115Z 17010KT 26/16 A2994 RMK A01 T02610161  RH  054%=      5-min Rain = 0
KWE1 061116Z 16010KT 26/16 A2994 RMK A01 T02610161  RH  054%=      5-min Rain = 0
KWE1 061117Z 16010KT 26/16 A2994 RMK A01 T02610161  RH  054%=      5-min Rain = 0
KWE1 061118Z 17012KT 26/16 A2994 RMK A01 T02610160  RH  054%=      5-min Rain = 0
KWE1 061119Z 17009KT 26/16 A2994 RMK A01 T02610161  RH  054%=      5-min Rain = 0
KWE1 061120Z 17010KT 26/16 A2994 RMK A01 T02610161  RH  054%=      5-min Rain = 0
KWE1 061121Z 17010KT 26/16 A2994 RMK A01 T02610161  RH  054%=      5-min Rain = 0
KWE1 061122Z 17010KT 26/16 A2994 RMK A01 T02610161  RH  054%=      5-min Rain = 0
KWE1 061123Z 17009KT 26/16 A2994 RMK A01 T02610161  RH  054%=      5-min Rain = 0
KWE1 061124Z 17010KT 26/16 A2994 RMK A01 T02610161  RH  054%=      5-min Rain = 0
KWE1 061125Z 17010KT 26/16 A2994 RMK A01 T02610161  RH  054%=      5-min Rain = 0
KWE1 061126Z 17010KT 26/16 A2994 RMK A01 T02610161  RH  054%=      5-min Rain = 0
KWE1 061127Z 17010KT 26/16 A2994 RMK A01 T02600161  RH  054%=      5-min Rain = 0
KWE1 061128Z 16010KT 26/16 A2994 RMK A01 T02600161  RH  054%=      5-min Rain = 0
KWE1 061129Z 16008KT 26/16 A2994 RMK A01 T02600160  RH  054%=      5-min Rain = 0
KWE1 061130Z 16009KT 26/16 A2994 RMK A01 T02590160  RH  054%=      5-min Rain = 0
KWE1 061131Z 16009KT 26/16 A2994 RMK A01 T02590160  RH  054%=      5-min Rain = 0
KWE1 061132Z 16010KT 26/16 A2994 RMK A01 T02580160  RH  055%=      5-min Rain = 0
KWE1 061133Z 16009KT 26/16 A2994 RMK A01 T02580160  RH  055%=      5-min Rain = 0
KWE1 061134Z 16009KT 26/16 A2994 RMK A01 T02580160  RH  055%=      5-min Rain = 0
KWE1 061135Z 17010KT 26/16 A2994 RMK A01 T02580160  RH  055%=      5-min Rain = 0
KWE1 061136Z 16010KT 26/16 A2994 RMK A01 T02580160  RH  055%=      5-min Rain = 0
KWE1 061137Z 16009KT 26/16 A2994 RMK A01 T02580160  RH  055%=      5-min Rain = 0
KWE1 061138Z 16010KT 26/16 A2994 RMK A01 T02590160  RH  055%=      5-min Rain = 0
KWE1 061139Z 16008KT 26/16 A2995 RMK A01 T02590160  RH  055%=      5-min Rain = 0
KWE1 061140Z 16008KT 26/16 A2995 RMK A01 T02580161  RH  055%=      5-min Rain = 0
KWE1 061141Z 16009KT 26/16 A2995 RMK A01 T02570161  RH  055%=      5-min Rain = 0
KWE1 061142Z 17010KT 26/16 A2995 RMK A01 T02570161  RH  055%=      5-min Rain = 0
KWE1 061143Z 16009KT 26/16 A2995 RMK A01 T02560160  RH  055%=      5-min Rain = 0
KWE1 061144Z 16007KT 26/16 A2995 RMK A01 T02560160  RH  055%=      5-min Rain = 0
KWE1 061145Z 16009KT 26/16 A2995 RMK A01 T02570161  RH  056%=      5-min Rain = 0
KWE1 061146Z 16008KT 26/16 A2995 RMK A01 T02560161  RH  056%=      5-min Rain = 0
KWE1 061147Z 17008KT 26/16 A2995 RMK A01 T02550160  RH  056%=      5-min Rain = 0
KWE1 061148Z 16010KT 26/16 A2995 RMK A01 T02550160  RH  056%=      5-min Rain = 0
KWE1 061149Z 16010KT 26/16 A2995 RMK A01 T02550160  RH  056%=      5-min Rain = 0
KWE1 061150Z 16009KT 26/16 A2995 RMK A01 T02550160  RH  056%=      5-min Rain = 0
KWE1 061151Z 16009KT 26/16 A2994 RMK A01 T02550160  RH  056%=      5-min Rain = 0
KWE1 061152Z 17009KT 26/16 A2994 RMK A01 T02550160  RH  056%=      5-min Rain = 0
KWE1 061153Z 17008KT 26/16 A2994 RMK A01 T02550160  RH  056%=      5-min Rain = 0
KWE1 061154Z 16009KT 26/16 A2994 RMK A01 T02560160  RH  056%=      5-min Rain = 0
KWE1 061155Z 16009KT 26/16 A2994 RMK A01 T02560160  RH  055%=      5-min Rain = 0
KWE1 061156Z 16009KT 26/16 A2994 RMK A01 T02560160  RH  056%=      5-min Rain = 0
KWE1 061157Z 17010KT 26/16 A2994 RMK A01 T02560160  RH  056%=      5-min Rain = 0
KWE1 061158Z 16008KT 26/16 A2994 RMK A01 T02560160  RH  055%=      5-min Rain = 0
KWE1 061159Z 17009KT 26/16 A2995 RMK A01 T02560161  RH  055%=      5-min Rain = 0
KWE1 061200Z 17008KT 26/16 A2995 RMK A01 T02560161  RH  055%=      5-min Rain = 0
KWE1 061201Z 16009KT 26/16 A2995 RMK A01 T02560160  RH  055%=      5-min Rain = 0
KWE1 061202Z 16009KT 26/16 A2995 RMK A01 T02560160  RH  056%=      5-min Rain = 0
KWE1 061203Z 17008KT 26/16 A2995 RMK A01 T02560161  RH  056%=      5-min Rain = 0
KWE1 061204Z 16010KT 26/16 A2995 RMK A01 T02560161  RH  056%=      5-min Rain = 0
KWE1 061205Z 16010KT 26/16 A2995 RMK A01 T02560161  RH  056%=      5-min Rain = 0
KWE1 061206Z 16008KT 26/16 A2995 RMK A01 T02560161  RH  056%=      5-min Rain = 0
KWE1 061207Z 16008KT 26/16 A2995 RMK A01 T02560161  RH  056%=      5-min Rain = 0
KWE1 061208Z 16008KT 26/16 A2995 RMK A01 T02550161  RH  056%=      5-min Rain = 0
KWE1 061209Z 16007KT 25/16 A2995 RMK A01 T02540161  RH  056%=      5-min Rain = 0
KWE1 061210Z 16008KT 25/16 A2995 RMK A01 T02530161  RH  057%=      5-min Rain = 0
KWE1 061211Z 16008KT 25/16 A2995 RMK A01 T02530161  RH  057%=      5-min Rain = 0
KWE1 061212Z 16008KT 25/16 A2995 RMK A01 T02530161  RH  057%=      5-min Rain = 0
KWE1 061213Z 16007KT 25/16 A2995 RMK A01 T02530161  RH  057%=      5-min Rain = 0
KWE1 061214Z 16007KT 25/16 A2995 RMK A01 T02530161  RH  057%=      5-min Rain = 0
KWE1 061215Z 16008KT 25/16 A2995 RMK A01 T02530162  RH  057%=      5-min Rain = 0
KWE1 061216Z 16008KT 25/16 A2995 RMK A01 T02530162  RH  057%=      5-min Rain = 0
KWE1 061217Z 16009KT 25/16 A2995 RMK A01 T02530162  RH  057%=      5-min Rain = 0
KWE1 061218Z 16007KT 25/16 A2996 RMK A01 T02530162  RH  057%=      5-min Rain = 0
KWE1 061219Z 16009KT 25/16 A2996 RMK A01 T02530162  RH  057%=      5-min Rain = 0
KWE1 061220Z 16008KT 25/16 A2996 RMK A01 T02530162  RH  057%=      5-min Rain = 0
KWE1 061221Z 16009KT 25/16 A2996 RMK A01 T02530162  RH  057%=      5-min Rain = 0
KWE1 061222Z 16009KT 25/16 A2996 RMK A01 T02540162  RH  057%=      5-min Rain = 0
KWE1 061223Z 16008KT 26/16 A2996 RMK A01 T02550162  RH  057%=      5-min Rain = 0
KWE1 061224Z 16008KT 26/16 A2996 RMK A01 T02560163  RH  056%=      5-min Rain = 0
KWE1 061225Z 16009KT 26/16 A2996 RMK A01 T02550163  RH  057%=      5-min Rain = 0
KWE1 061226Z 16009KT 26/16 A2996 RMK A01 T02550163  RH  057%=      5-min Rain = 0
KWE1 061227Z 16009KT 26/16 A2996 RMK A01 T02550162  RH  056%=      5-min Rain = 0
KWE1 061228Z 16008KT 26/16 A2996 RMK A01 T02560162  RH  056%=      5-min Rain = 0
KWE1 061229Z 16009KT 26/16 A2996 RMK A01 T02560162  RH  056%=      5-min Rain = 0
KWE1 061230Z 17008KT 26/16 A2996 RMK A01 T02570163  RH  056%=      5-min Rain = 0
KWE1 061231Z 16009KT 26/16 A2996 RMK A01 T02570163  RH  056%=      5-min Rain = 0
KWE1 061232Z 17009KT 26/16 A2996 RMK A01 T02570162  RH  056%=      5-min Rain = 0
KWE1 061233Z 17010KT 26/16 A2996 RMK A01 T02570162  RH  056%=      5-min Rain = 0
KWE1 061234Z 16010KT 26/16 A2995 RMK A01 T02580163  RH  056%=      5-min Rain = 0
KWE1 061235Z 16009KT 26/16 A2995 RMK A01 T02590163  RH  055%=      5-min Rain = 0
KWE1 061236Z 16009KT 26/16 A2995 RMK A01 T02590163  RH  055%=      5-min Rain = 0
KWE1 061237Z 17009KT 26/16 A2995 RMK A01 T02590163  RH  055%=      5-min Rain = 0
KWE1 061238Z 17009KT 26/16 A2995 RMK A01 T02590163  RH  056%=      5-min Rain = 0
KWE1 061239Z 17009KT 26/16 A2995 RMK A01 T02590164  RH  056%=      5-min Rain = 0
KWE1 061240Z 17010KT 26/16 A2995 RMK A01 T02590163  RH  055%=      5-min Rain = 0
KWE1 061241Z 16010KT 26/16 A2995 RMK A01 T02600163  RH  055%=      5-min Rain = 0
KWE1 061242Z 17009KT 26/16 A2995 RMK A01 T02600163  RH  055%=      5-min Rain = 0
KWE1 061243Z 17010KT 26/16 A2995 RMK A01 T02600163  RH  055%=      5-min Rain = 0
KWE1 061244Z 17011KT 26/16 A2995 RMK A01 T02610162  RH  054%=      5-min Rain = 0
KWE1 061245Z 17010KT 26/16 A2995 RMK A01 T02620163  RH  054%=      5-min Rain = 0
KWE1 061246Z 16010KT 26/16 A2995 RMK A01 T02620163  RH  054%=      5-min Rain = 0
KWE1 061247Z 17011KT 26/16 A2995 RMK A01 T02620163  RH  054%=      5-min Rain = 0
KWE1 061248Z 16010KT 26/16 A2995 RMK A01 T02630163  RH  054%=      5-min Rain = 0
KWE1 061249Z 17010KT 26/16 A2995 RMK A01 T02630163  RH  054%=      5-min Rain = 0
KWE1 061250Z 16009KT 26/16 A2996 RMK A01 T02630163  RH  054%=      5-min Rain = 0
KWE1 061251Z 17009KT 26/16 A2996 RMK A01 T02640164  RH  054%=      5-min Rain = 0
KWE1 061252Z 17009KT 26/16 A2996 RMK A01 T02630164  RH  054%=      5-min Rain = 0
KWE1 061253Z 17009KT 26/16 A2996 RMK A01 T02630163  RH  054%=      5-min Rain = 0
KWE1 061254Z 17009KT 26/16 A2996 RMK A01 T02630163  RH  054%=      5-min Rain = 0
KWE1 061255Z 17009KT 26/16 A2996 RMK A01 T02630163  RH  054%=      5-min Rain = 0
KWE1 061256Z 17008KT 26/16 A2996 RMK A01 T02630164  RH  054%=      5-min Rain = 0
KWE1 061257Z 17010KT 26/16 A2996 RMK A01 T02640164  RH  054%=      5-min Rain = 0
KWE1 061258Z 17010KT 26/16 A2996 RMK A01 T02640164  RH  054%=      5-min Rain = 0
KWE1 061259Z 16009KT 26/16 A2996 RMK A01 T02640164  RH  054%=      5-min Rain = 0
KWE1 061300Z 17010KT 27/16 A2996 RMK A01 T02650164  RH  054%=      5-min Rain = 0
KWE1 061301Z 17009KT 27/16 A2996 RMK A01 T02650164  RH  054%=      5-min Rain = 0
KWE1 061302Z 17009KT 27/17 A2996 RMK A01 T02650165  RH  054%=      5-min Rain = 0
KWE1 061303Z 17010KT 27/16 A2996 RMK A01 T02650164  RH  054%=      5-min Rain = 0
KWE1 061304Z 17009KT 27/17 A2996 RMK A01 T02650165  RH  054%=      5-min Rain = 0
KWE1 061305Z 17010KT 27/16 A2996 RMK A01 T02650164  RH  054%=      5-min Rain = 0
KWE1 061306Z 17008KT 27/17 A2996 RMK A01 T02650165  RH  054%=      5-min Rain = 0
KWE1 061307Z 17009KT 27/17 A2996 RMK A01 T02650165  RH  054%=      5-min Rain = 0
KWE1 061308Z 17009KT 27/17 A2996 RMK A01 T02650165  RH  054%=      5-min Rain = 0
KWE1 061309Z 17010KT 27/17 A2996 RMK A01 T02650165  RH  054%=      5-min Rain = 0
KWE1 061310Z 17009KT 27/17 A2996 RMK A01 T02660165  RH  054%=      5-min Rain = 0
KWE1 061311Z 17009KT 27/17 A2996 RMK A01 T02660166  RH  054%=      5-min Rain = 0
KWE1 061312Z 17009KT 27/17 A2996 RMK A01 T02660166  RH  054%=      5-min Rain = 0
KWE1 061313Z 17010KT 27/17 A2996 RMK A01 T02660165  RH  054%=      5-min Rain = 0
KWE1 061314Z 17009KT 27/17 A2996 RMK A01 T02660165  RH  054%=      5-min Rain = 0
KWE1 061315Z 17007KT 27/17 A2996 RMK A01 T02660166  RH  054%=      5-min Rain = 0
KWE1 061316Z 17008KT 27/17 A2996 RMK A01 T02670166  RH  054%=      5-min Rain = 0
KWE1 061317Z 17009KT 27/17 A2996 RMK A01 T02680167  RH  054%=      5-min Rain = 0
KWE1 061318Z 18008KT 27/17 A2996 RMK A01 T02690166  RH  053%=      5-min Rain = 0
KWE1 061319Z 17008KT 27/17 A2996 RMK A01 T02700166  RH  053%=      5-min Rain = 0
KWE1 061320Z 18009KT 27/17 A2996 RMK A01 T02700167  RH  053%=      5-min Rain = 0
KWE1 061321Z 17010KT 27/17 A2996 RMK A01 T02710167  RH  053%=      5-min Rain = 0
KWE1 061322Z 17009KT 27/17 A2996 RMK A01 T02710166  RH  053%=      5-min Rain = 0
KWE1 061323Z 17010KT 27/17 A2996 RMK A01 T02710166  RH  053%=      5-min Rain = 0
KWE1 061324Z 17010KT 27/17 A2996 RMK A01 T02710166  RH  053%=      5-min Rain = 0
KWE1 061325Z 18010KT 27/17 A2996 RMK A01 T02710166  RH  053%=      5-min Rain = 0
KWE1 061326Z 17012KT 27/17 A2996 RMK A01 T02710166  RH  053%=      5-min Rain = 0
KWE1 061327Z 17011KT 27/17 A2996 RMK A01 T02710166  RH  053%=      5-min Rain = 0
KWE1 061328Z 18010KT 27/17 A2996 RMK A01 T02720167  RH  053%=      5-min Rain = 0
KWE1 061329Z 18012KT 27/17 A2996 RMK A01 T02720166  RH  052%=      5-min Rain = 0
KWE1 061330Z 18012KT 27/17 A2996 RMK A01 T02720166  RH  052%=      5-min Rain = 0
KWE1 061331Z 17010KT 27/17 A2996 RMK A01 T02730166  RH  052%=      5-min Rain = 0
KWE1 061332Z 17011KT 27/17 A2996 RMK A01 T02720167  RH  053%=      5-min Rain = 0
KWE1 061333Z 18011KT 27/17 A2996 RMK A01 T02730167  RH  052%=      5-min Rain = 0
KWE1 061334Z 17009KT 27/17 A2996 RMK A01 T02730168  RH  052%=      5-min Rain = 0
KWE1 061335Z 18010KT 27/17 A2996 RMK A01 T02730167  RH  052%=      5-min Rain = 0
KWE1 061336Z 18010KT 27/17 A2996 RMK A01 T02740167  RH  052%=      5-min Rain = 0
KWE1 061337Z 17011KT 27/17 A2996 RMK A01 T02740168  RH  052%=      5-min Rain = 0
KWE1 061338Z 17011KT 27/17 A2996 RMK A01 T02740167  RH  052%=      5-min Rain = 0
KWE1 061339Z 17011KT 28/17 A2996 RMK A01 T02750168  RH  052%=      5-min Rain = 0
KWE1 061340Z 18012KT 28/17 A2996 RMK A01 T02750168  RH  052%=      5-min Rain = 0
KWE1 061341Z 17012KT 28/17 A2996 RMK A01 T02750167  RH  052%=      5-min Rain = 0
KWE1 061342Z 18012KT 28/17 A2996 RMK A01 T02760167  RH  052%=      5-min Rain = 0
KWE1 061343Z 17011KT 28/17 A2996 RMK A01 T02760167  RH  051%=      5-min Rain = 0
KWE1 061344Z 17011KT 28/17 A2996 RMK A01 T02770168  RH  052%=      5-min Rain = 0
KWE1 061345Z 18011KT 28/17 A2996 RMK A01 T02770168  RH  051%=      5-min Rain = 0
KWE1 061346Z 18011KT 28/17 A2996 RMK A01 T02770168  RH  051%=      5-min Rain = 0
KWE1 061347Z 18008KT 28/17 A2996 RMK A01 T02770169  RH  052%=      5-min Rain = 0
KWE1 061348Z 18011KT 28/17 A2996 RMK A01 T02780169  RH  051%=      5-min Rain = 0
KWE1 061349Z 18011KT 28/17 A2996 RMK A01 T02790168  RH  051%=      5-min Rain = 0
KWE1 061350Z 19009KT 28/17 A2996 RMK A01 T02790168  RH  051%=      5-min Rain = 0
KWE1 061351Z 18011KT 28/17 A2996 RMK A01 T02790169  RH  051%=      5-min Rain = 0
KWE1 061352Z 18012KT 28/17 A2996 RMK A01 T02790168  RH  051%=      5-min Rain = 0
KWE1 061353Z 19010KT 28/17 A2996 RMK A01 T02790169  RH  051%=      5-min Rain = 0
KWE1 061354Z 19010KT 28/17 A2996 RMK A01 T02790169  RH  051%=      5-min Rain = 0
KWE1 061355Z 18010KT 28/17 A2996 RMK A01 T02800171  RH  052%=      5-min Rain = 0
KWE1 061356Z 18014KT 28/17 A2996 RMK A01 T02800170  RH  051%=      5-min Rain = 0
KWE1 061357Z 19011KT 28/17 A2996 RMK A01 T02800169  RH  051%=      5-min Rain = 0
KWE1 061358Z 19008KT 28/17 A2996 RMK A01 T02810171  RH  051%=      5-min Rain = 0
KWE1 061359Z 19009KT 28/17 A2996 RMK A01 T02820172  RH  051%=      5-min Rain = 0
KWE1 061400Z 19011KT 28/17 A2996 RMK A01 T02830171  RH  051%=      5-min Rain = 0
KWE1 061401Z 19010KT 28/17 A2996 RMK A01 T02840171  RH  050%=      5-min Rain = 0
KWE1 061402Z 18011KT 28/17 A2996 RMK A01 T02840171  RH  050%=      5-min Rain = 0
KWE1 061403Z 19013KT 28/17 A2996 RMK A01 T02840170  RH  050%=      5-min Rain = 0
KWE1 061404Z 19013KT 28/17 A2996 RMK A01 T02840169  RH  050%=      5-min Rain = 0
KWE1 061405Z 18012KT 28/17 A2996 RMK A01 T02840170  RH  050%=      5-min Rain = 0
KWE1 061406Z 20012KT 29/17 A2996 RMK A01 T02850169  RH  049%=      5-min Rain = 0
KWE1 061407Z 19011KT 29/17 A2996 RMK A01 T02850171  RH  050%=      5-min Rain = 0
KWE1 061408Z 19011KT 29/17 A2996 RMK A01 T02860170  RH  049%=      5-min Rain = 0
KWE1 061409Z 19011KT 29/17 A2996 RMK A01 T02870172  RH  050%=      5-min Rain = 0
KWE1 061410Z 18013KT 29/17 A2996 RMK A01 T02880170  RH  049%=      5-min Rain = 0
KWE1 061411Z 18013KT 29/17 A2996 RMK A01 T02870170  RH  049%=      5-min Rain = 0
KWE1 061412Z 19013KT 29/17 A2996 RMK A01 T02870170  RH  049%=      5-min Rain = 0
KWE1 061413Z 18011KT 29/17 A2996 RMK A01 T02880170  RH  049%=      5-min Rain = 0
KWE1 061414Z 19011KT 29/17 A2996 RMK A01 T02890172  RH  049%=      5-min Rain = 0
KWE1 061415Z 19011KT 29/17 A2996 RMK A01 T02900171  RH  049%=      5-min Rain = 0
KWE1 061416Z 19013KT 29/17 A2996 RMK A01 T02900171  RH  049%=      5-min Rain = 0
KWE1 061417Z 18012KT 29/17 A2996 RMK A01 T02900170  RH  048%=      5-min Rain = 0
KWE1 061418Z 18011KT 29/17 A2996 RMK A01 T02900171  RH  049%=      5-min Rain = 0
KWE1 061419Z 19011KT 29/17 A2996 RMK A01 T02900172  RH  049%=      5-min Rain = 0
KWE1 061420Z 20011KT 29/17 A2996 RMK A01 T02910171  RH  048%=      5-min Rain = 0
KWE1 061421Z 18009KT 29/17 A2996 RMK A01 T02910172  RH  049%=      5-min Rain = 0
KWE1 061422Z 19008KT 29/17 A2997 RMK A01 T02920172  RH  049%=      5-min Rain = 0
KWE1 061423Z 20009KT 29/17 A2996 RMK A01 T02930173  RH  048%=      5-min Rain = 0
KWE1 061424Z 19011KT 29/17 A2996 RMK A01 T02940173  RH  048%=      5-min Rain = 0
KWE1 061425Z 19012KT 30/17 A2996 RMK A01 T02950173  RH  048%=      5-min Rain = 0
KWE1 061426Z 19011KT 30/17 A2996 RMK A01 T02950173  RH  048%=      5-min Rain = 0
KWE1 061427Z 19014KT 30/17 A2996 RMK A01 T02950172  RH  048%=      5-min Rain = 0
KWE1 061428Z 20012KT 30/17 A2996 RMK A01 T02950173  RH  048%=      5-min Rain = 0
KWE1 061429Z 19014KT 30/17 A2996 RMK A01 T02950171  RH  047%=      5-min Rain = 0
KWE1 061430Z 20013KT 30/17 A2996 RMK A01 T02950171  RH  047%=      5-min Rain = 0
KWE1 061431Z 20013KT 30/17 A2996 RMK A01 T02950171  RH  047%=      5-min Rain = 0
KWE1 061432Z 20012KT 30/17 A2996 RMK A01 T02950172  RH  047%=      5-min Rain = 0
KWE1 061433Z 20012KT 30/17 A2996 RMK A01 T02960173  RH  048%=      5-min Rain = 0
KWE1 061434Z 20012KT 30/17 A2996 RMK A01 T02970171  RH  047%=      5-min Rain = 0
KWE1 061435Z 19011KT 30/17 A2996 RMK A01 T02970173  RH  048%=      5-min Rain = 0
KWE1 061436Z 20015KT 30/17 A2996 RMK A01 T02980172  RH  047%=      5-min Rain = 0
KWE1 061437Z 21012KT 30/17 A2996 RMK A01 T02970172  RH  047%=      5-min Rain = 0
KWE1 061438Z 19011KT 30/17 A2996 RMK A01 T02970174  RH  048%=      5-min Rain = 0
KWE1 061439Z 19014KT 30/17 A2996 RMK A01 T02990174  RH  047%=      5-min Rain = 0
KWE1 061440Z 20013KT 30/17 A2996 RMK A01 T02990173  RH  047%=      5-min Rain = 0
KWE1 061441Z 20013KT 30/17 A2997 RMK A01 T02980172  RH  047%=      5-min Rain = 0
KWE1 061442Z 21011KT 30/17 A2996 RMK A01 T02980173  RH  047%=      5-min Rain = 0
KWE1 061443Z 20009KT 30/17 A2997 RMK A01 T02970174  RH  048%=      5-min Rain = 0
KWE1 061444Z 19012G17KT 30/18 A2996 RMK A01 T02990176  RH  048%=      5-min Rain = 0
KWE1 061445Z 20016KT 30/18 A2996 RMK A01 T03000175  RH  047%=      5-min Rain = 0
KWE1 061446Z 19013KT 30/17 A2996 RMK A01 T02990174  RH  047%=      5-min Rain = 0
KWE1 061447Z 20014KT 30/17 A2996 RMK A01 T02980174  RH  048%=      5-min Rain = 0
KWE1 061448Z 20011KT 30/17 A2997 RMK A01 T02980174  RH  048%=      5-min Rain = 0
KWE1 061449Z 20012KT 30/18 A2997 RMK A01 T02980175  RH  048%=      5-min Rain = 0
KWE1 061450Z 19013KT 30/18 A2997 RMK A01 T02990175  RH  047%=      5-min Rain = 0
KWE1 061451Z 20012KT 30/18 A2997 RMK A01 T02990176  RH  047%=      5-min Rain = 0
KWE1 061452Z 20011KT 30/18 A2997 RMK A01 T03010176  RH  047%=      5-min Rain = 0
KWE1 061453Z 20010KT 30/18 A2997 RMK A01 T03010177  RH  047%=      5-min Rain = 0
KWE1 061454Z 21011KT 30/18 A2997 RMK A01 T03020177  RH  047%=      5-min Rain = 0
KWE1 061455Z 21010G15KT 30/18 A2997 RMK A01 T03030176  RH  047%=      5-min Rain = 0
KWE1 061456Z 20011KT 30/18 A2997 RMK A01 T03030177  RH  047%=      5-min Rain = 0
KWE1 061457Z 20013KT 30/18 A2997 RMK A01 T03030176  RH  047%=      5-min Rain = 0
KWE1 061458Z 19012KT 30/18 A2997 RMK A01 T03020176  RH  047%=      5-min Rain = 0
KWE1 061459Z 20014KT 30/18 A2997 RMK A01 T03010176  RH  047%=      5-min Rain = 0
KWE1 061500Z 21014KT 30/18 A2997 RMK A01 T03010176  RH  047%=      5-min Rain = 0
KWE1 061501Z 21016KT 30/18 A2996 RMK A01 T03010175  RH  047%=      5-min Rain = 0
KWE1 061502Z 20013KT 30/18 A2997 RMK A01 T03010175  RH  047%=      5-min Rain = 0
KWE1 061503Z 21015KT 30/18 A2997 RMK A01 T03010177  RH  047%=      5-min Rain = 0
KWE1 061504Z 20013KT 30/18 A2997 RMK A01 T03040177  RH  047%=      5-min Rain = 0
KWE1 061505Z 20011KT 30/18 A2997 RMK A01 T03040178  RH  047%=      5-min Rain = 0
KWE1 061506Z 21014KT 31/18 A2996 RMK A01 T03060178  RH  046%=      5-min Rain = 0
KWE1 061507Z 20015KT 31/18 A2996 RMK A01 T03060177  RH  046%=      5-min Rain = 0
KWE1 061508Z 20015KT 31/18 A2996 RMK A01 T03060176  RH  046%=      5-min Rain = 0
KWE1 061509Z 21015KT 31/18 A2996 RMK A01 T03060176  RH  046%=      5-min Rain = 0
KWE1 061510Z 20013KT 31/18 A2996 RMK A01 T03060176  RH  046%=      5-min Rain = 0
KWE1 061511Z 21013KT 31/18 A2996 RMK A01 T03070178  RH  046%=      5-min Rain = 0
KWE1 061512Z 21014KT 31/18 A2997 RMK A01 T03090177  RH  045%=      5-min Rain = 0
KWE1 061513Z 22014KT 31/18 A2997 RMK A01 T03090177  RH  045%=      5-min Rain = 0
KWE1 061514Z 22013KT 31/18 A2997 RMK A01 T03100176  RH  045%=      5-min Rain = 0
KWE1 061515Z 22013KT 31/18 A2997 RMK A01 T03100176  RH  045%=      5-min Rain = 0
KWE1 061516Z 22012KT 31/18 A2997 RMK A01 T03110177  RH  045%=      5-min Rain = 0
KWE1 061517Z 23011KT 31/18 A2997 RMK A01 T03120178  RH  045%=      5-min Rain = 0
KWE1 061518Z 21012KT 32/18 A2997 RMK A01 T03150180  RH  044%=      5-min Rain = 0
KWE1 061519Z 22013KT 32/18 A2997 RMK A01 T03160178  RH  044%=      5-min Rain = 0
KWE1 061520Z 22013KT 32/18 A2997 RMK A01 T03170177  RH  043%=      5-min Rain = 0
KWE1 061521Z 22012KT 32/18 A2997 RMK A01 T03180178  RH  043%=      5-min Rain = 0
KWE1 061522Z 22014KT 32/18 A2997 RMK A01 T03180177  RH  043%=      5-min Rain = 0
KWE1 061523Z 21013KT 32/18 A2997 RMK A01 T03160176  RH  043%=      5-min Rain = 0
KWE1 061524Z 22012KT 31/18 A2997 RMK A01 T03140177  RH  044%=      5-min Rain = 0
KWE1 061525Z 21011KT 31/18 A2997 RMK A01 T03140177  RH  044%=      5-min Rain = 0
KWE1 061526Z 21013KT 32/18 A2997 RMK A01 T03160178  RH  044%=      5-min Rain = 0
KWE1 061527Z 21013KT 32/18 A2997 RMK A01 T03160177  RH  043%=      5-min Rain = 0
KWE1 061528Z 21014KT 32/18 A2997 RMK A01 T03160175  RH  043%=      5-min Rain = 0
KWE1 061529Z 21014KT 31/18 A2997 RMK A01 T03130175  RH  044%=      5-min Rain = 0
KWE1 061530Z 21013KT 31/18 A2997 RMK A01 T03130175  RH  044%=      5-min Rain = 0
KWE1 061531Z 21015KT 31/17 A2997 RMK A01 T03130174  RH  043%=      5-min Rain = 0
KWE1 061532Z 22014KT 31/17 A2997 RMK A01 T03120173  RH  043%=      5-min Rain = 0
KWE1 061533Z 22013KT 31/17 A2997 RMK A01 T03120174  RH  044%=      5-min Rain = 0
KWE1 061534Z 22012KT 31/17 A2997 RMK A01 T03120174  RH  044%=      5-min Rain = 0
KWE1 061535Z 22009KT 31/17 A2997 RMK A01 T03110174  RH  044%=      5-min Rain = 0
KWE1 061536Z 20013KT 31/18 A2997 RMK A01 T03110175  RH  044%=      5-min Rain = 0
KWE1 061537Z 20014KT 31/17 A2997 RMK A01 T03110174  RH  044%=      5-min Rain = 0
KWE1 061538Z 19014KT 31/17 A2997 RMK A01 T03110174  RH  044%=      5-min Rain = 0
KWE1 061539Z 19013KT 31/18 A2997 RMK A01 T03120175  RH  044%=      5-min Rain = 0
KWE1 061540Z 19013KT 32/18 A2997 RMK A01 T03150176  RH  044%=      5-min Rain = 0
KWE1 061541Z 20011KT 32/18 A2997 RMK A01 T03160176  RH  043%=      5-min Rain = 0
KWE1 061542Z 21013KT 32/18 A2997 RMK A01 T03190177  RH  043%=      5-min Rain = 0
KWE1 061543Z 21014KT 32/18 A2997 RMK A01 T03200177  RH  042%=      5-min Rain = 0
KWE1 061544Z 21011KT 32/17 A2997 RMK A01 T03180174  RH  042%=      5-min Rain = 0
KWE1 061545Z 21009KT 32/18 A2997 RMK A01 T03150175  RH  043%=      5-min Rain = 0
KWE1 061546Z 20009KT 32/18 A2997 RMK A01 T03160177  RH  044%=      5-min Rain = 0
KWE1 061547Z 20008KT 32/18 A2997 RMK A01 T03190178  RH  043%=      5-min Rain = 0
KWE1 061548Z 20009KT 32/18 A2997 RMK A01 T03200179  RH  043%=      5-min Rain = 0
KWE1 061549Z 19011KT 32/18 A2997 RMK A01 T03200178  RH  043%=      5-min Rain = 0
KWE1 061550Z 20012KT 32/18 A2997 RMK A01 T03200176  RH  042%=      5-min Rain = 0
KWE1 061551Z 22009KT 32/18 A2997 RMK A01 T03170176  RH  043%=      5-min Rain = 0
KWE1 061552Z 22008KT 32/18 A2998 RMK A01 T03180179  RH  043%=      5-min Rain = 0
KWE1 061553Z 22009KT 32/18 A2997 RMK A01 T03220177  RH  042%=      5-min Rain = 0
KWE1 061554Z 19010KT 32/18 A2998 RMK A01 T03220178  RH  042%=      5-min Rain = 0
KWE1 061555Z 18010KT 32/18 A2998 RMK A01 T03230178  RH  042%=      5-min Rain = 0
KWE1 061556Z 19011KT 32/18 A2997 RMK A01 T03240177  RH  042%=      5-min Rain = 0
KWE1 061557Z 20013KT 33/18 A2997 RMK A01 T03260178  RH  041%=      5-min Rain = 0
KWE1 061558Z 21010KT 33/18 A2997 RMK A01 T03260177  RH  041%=      5-min Rain = 0
KWE1 061559Z 20011KT 33/18 A2998 RMK A01 T03270177  RH  041%=      5-min Rain = 0
KWE1 061600Z 21009KT 33/18 A2998 RMK A01 T03270175  RH  040%=      5-min Rain = 0
KWE1 061601Z 19014KT 33/18 A2997 RMK A01 T03260175  RH  041%=      5-min Rain = 0
KWE1 061602Z 21011KT 33/18 A2998 RMK A01 T03270176  RH  041%=      5-min Rain = 0
KWE1 061603Z 21013KT 33/18 A2997 RMK A01 T03260175  RH  041%=      5-min Rain = 0
KWE1 061604Z 22013KT 33/18 A2997 RMK A01 T03280176  RH  040%=      5-min Rain = 0
KWE1 061605Z 21012KT 33/18 A2998 RMK A01 T03330179  RH  040%=      5-min Rain = 0
KWE1 061606Z 21012KT 34/18 A2997 RMK A01 T03350177  RH  039%=      5-min Rain = 0
KWE1 061607Z 21010KT 33/18 A2998 RMK A01 T03320176  RH  039%=      5-min Rain = 0
KWE1 061608Z 21013G18KT 33/18 A2997 RMK A01 T03300175  RH  040%=      5-min Rain = 0
KWE1 061609Z 21013G19KT 33/17 A2997 RMK A01 T03300172  RH  039%=      5-min Rain = 0
KWE1 061610Z 21014KT 33/18 A2997 RMK A01 T03320175  RH  039%=      5-min Rain = 0
KWE1 061611Z 21011G16KT 33/17 A2998 RMK A01 T03340174  RH  039%=      5-min Rain = 0
KWE1 061612Z 22012KT 33/17 A2998 RMK A01 T03310173  RH  039%=      5-min Rain = 0
KWE1 061613Z 20010KT 33/18 A2998 RMK A01 T03310176  RH  040%=      5-min Rain = 0
KWE1 061614Z 19011KT 34/18 A2998 RMK A01 T03350177  RH  039%=      5-min Rain = 0
KWE1 061615Z 19010KT 34/18 A2998 RMK A01 T03350177  RH  039%=      5-min Rain = 0
KWE1 061616Z 21011KT 34/18 A2998 RMK A01 T03350176  RH  039%=      5-min Rain = 0
KWE1 061617Z 21011G16KT 33/17 A2998 RMK A01 T03320173  RH  039%=      5-min Rain = 0
KWE1 061618Z 20014KT 33/17 A2997 RMK A01 T03300174  RH  039%=      5-min Rain = 0
KWE1 061619Z 19014KT 33/17 A2998 RMK A01 T03290172  RH  039%=      5-min Rain = 0
KWE1 061620Z 19010KT 33/17 A2998 RMK A01 T03280172  RH  039%=      5-min Rain = 0
KWE1 061621Z 19010KT 33/17 A2998 RMK A01 T03280173  RH  040%=      5-min Rain = 0
KWE1 061622Z 19008KT 33/17 A2998 RMK A01 T03290174  RH  039%=      5-min Rain = 0
KWE1 061623Z 19011KT 33/17 A2998 RMK A01 T03280173  RH  040%=      5-min Rain = 0
KWE1 061624Z 19009KT 33/17 A2998 RMK A01 T03270174  RH  040%=      5-min Rain = 0
KWE1 061625Z 19011KT 33/18 A2998 RMK A01 T03270175  RH  040%=      5-min Rain = 0
KWE1 061626Z 19013KT 33/17 A2998 RMK A01 T03280174  RH  040%=      5-min Rain = 0
KWE1 061627Z 19011KT 33/17 A2998 RMK A01 T03290174  RH  040%=      5-min Rain = 0
KWE1 061628Z 19013KT 33/17 A2998 RMK A01 T03290173  RH  039%=      5-min Rain = 0
KWE1 061629Z 20012KT 33/17 A2998 RMK A01 T03300174  RH  040%=      5-min Rain = 0
KWE1 061630Z 19012KT 33/18 A2998 RMK A01 T03330176  RH  039%=      5-min Rain = 0
KWE1 061631Z 20013KT 34/18 A2998 RMK A01 T03360175  RH  039%=      5-min Rain = 0
KWE1 061632Z 19012KT 34/18 A2998 RMK A01 T03360175  RH  039%=      5-min Rain = 0
KWE1 061633Z 19011KT 34/18 A2998 RMK A01 T03370175  RH  038%=      5-min Rain = 0
KWE1 061634Z 20011KT 34/17 A2998 RMK A01 T03350173  RH  038%=      5-min Rain = 0
KWE1 061635Z 19012KT 33/18 A2998 RMK A01 T03330175  RH  039%=      5-min Rain = 0
KWE1 061636Z 20011KT 33/17 A2998 RMK A01 T03340173  RH  039%=      5-min Rain = 0
KWE1 061637Z 20009KT 33/17 A2998 RMK A01 T03330174  RH  039%=      5-min Rain = 0
KWE1 061638Z 20010KT 33/18 A2998 RMK A01 T03340176  RH  039%=      5-min Rain = 0
KWE1 061639Z 20011KT 34/18 A2998 RMK A01 T03370176  RH  038%=      5-min Rain = 0
KWE1 061640Z 20009KT 33/17 A2998 RMK A01 T03330172  RH  038%=      5-min Rain = 0
KWE1 061641Z 18008KT 33/17 A2998 RMK A01 T03280172  RH  039%=      5-min Rain = 0
KWE1 061642Z 19009KT 33/17 A2998 RMK A01 T03280172  RH  039%=      5-min Rain = 0
KWE1 061643Z 20010KT 33/17 A2998 RMK A01 T03280171  RH  039%=      5-min Rain = 0
KWE1 061644Z 21010KT 33/17 A2998 RMK A01 T03280171  RH  039%=      5-min Rain = 0
KWE1 061645Z 21013KT 33/17 A2998 RMK A01 T03280171  RH  039%=      5-min Rain = 0
KWE1 061646Z 19013KT 33/17 A2998 RMK A01 T03280170  RH  039%=      5-min Rain = 0
KWE1 061647Z 19012KT 33/17 A2998 RMK A01 T03270169  RH  039%=      5-min Rain = 0
KWE1 061648Z 19012KT 33/17 A2997 RMK A01 T03260169  RH  039%=      5-min Rain = 0
KWE1 061649Z 19013KT 33/17 A2997 RMK A01 T03250169  RH  039%=      5-min Rain = 0
KWE1 061650Z 19012KT 33/17 A2997 RMK A01 T03250170  RH  040%=      5-min Rain = 0
KWE1 061651Z 19012KT 33/17 A2997 RMK A01 T03250171  RH  040%=      5-min Rain = 0
KWE1 061652Z 19010KT 32/17 A2997 RMK A01 T03240171  RH  040%=      5-min Rain = 0
KWE1 061653Z 19011KT 32/17 A2997 RMK A01 T03240170  RH  040%=      5-min Rain = 0
KWE1 061654Z 18009KT 32/17 A2997 RMK A01 T03240169  RH  040%=      5-min Rain = 0
KWE1 061655Z 19008KT 32/17 A2997 RMK A01 T03240170  RH  040%=      5-min Rain = 0
KWE1 061656Z 20010KT 32/17 A2997 RMK A01 T03240169  RH  039%=      5-min Rain = 0
KWE1 061657Z 19008KT 32/17 A2997 RMK A01 T03240169  RH  040%=      5-min Rain = 0
KWE1 061658Z 20009KT 32/17 A2998 RMK A01 T03240171  RH  040%=      5-min Rain = 0
KWE1 061659Z 21011KT 33/17 A2997 RMK A01 T03250171  RH  040%=      5-min Rain = 0
KWE1 061700Z 20009KT 33/17 A2998 RMK A01 T03250171  RH  040%=      5-min Rain = 0
KWE1 061701Z 20009KT 33/17 A2997 RMK A01 T03280172  RH  039%=      5-min Rain = 0
KWE1 061702Z 19008KT 33/18 A2998 RMK A01 T03320175  RH  039%=      5-min Rain = 0
KWE1 061703Z 21009KT 34/18 A2997 RMK A01 T03360176  RH  038%=      5-min Rain = 0
KWE1 061704Z 20011KT 34/17 A2997 RMK A01 T03380172  RH  037%=      5-min Rain = 0
KWE1 061705Z 20010KT 34/17 A2997 RMK A01 T03390170  RH  037%=      5-min Rain = 0
KWE1 061706Z 19010KT 34/17 A2997 RMK A01 T03390172  RH  037%=      5-min Rain = 0
KWE1 061707Z 20012KT 34/17 A2997 RMK A01 T03400172  RH  037%=      5-min Rain = 0
KWE1 061708Z 20011KT 34/17 A2997 RMK A01 T03410170  RH  036%=      5-min Rain = 0
KWE1 061709Z 19008KT 34/17 A2997 RMK A01 T03410173  RH  037%=      5-min Rain = 0
KWE1 061710Z 18011KT 35/17 A2997 RMK A01 T03450172  RH  036%=      5-min Rain = 0
KWE1 061711Z 19010KT 34/17 A2997 RMK A01 T03440170  RH  036%=      5-min Rain = 0
KWE1 061712Z 19010KT 34/17 A2997 RMK A01 T03430171  RH  036%=      5-min Rain = 0
KWE1 061713Z 19011KT 34/17 A2997 RMK A01 T03410169  RH  036%=      5-min Rain = 0
KWE1 061714Z 20009KT 34/17 A2997 RMK A01 T03410171  RH  036%=      5-min Rain = 0
KWE1 061715Z 18010KT 34/17 A2997 RMK A01 T03440170  RH  036%=      5-min Rain = 0
KWE1 061716Z 17009KT 35/17 A2997 RMK A01 T03470171  RH  035%=      5-min Rain = 0
KWE1 061717Z 18012G17KT 35/17 A2997 RMK A01 T03500170  RH  034%=      5-min Rain = 0
KWE1 061718Z 20014KT 35/17 A2997 RMK A01 T03500169  RH  034%=      5-min Rain = 0
KWE1 061719Z 20011KT 35/16 A2997 RMK A01 T03500164  RH  033%=      5-min Rain = 0
KWE1 061720Z 20013KT 35/16 A2997 RMK A01 T03500164  RH  033%=      5-min Rain = 0
KWE1 061721Z 20012KT 35/16 A2997 RMK A01 T03480164  RH  033%=      5-min Rain = 0
KWE1 061722Z 21012KT 35/17 A2997 RMK A01 T03470165  RH  034%=      5-min Rain = 0
KWE1 061723Z 21011KT 35/16 A2997 RMK A01 T03490162  RH  033%=      5-min Rain = 0
KWE1 061724Z 22012KT 35/16 A2997 RMK A01 T03500162  RH  033%=      5-min Rain = 0
KWE1 061725Z 22009KT 35/16 A2997 RMK A01 T03470160  RH  033%=      5-min Rain = 0
KWE1 061726Z 21014KT 35/16 A2997 RMK A01 T03450158  RH  033%=      5-min Rain = 0
KWE1 061727Z 22015KT 35/15 A2997 RMK A01 T03460146  RH  030%=      5-min Rain = 0
KWE1 061728Z 20014KT 35/15 A2997 RMK A01 T03480150  RH  031%=      5-min Rain = 0
KWE1 061729Z 21013KT 35/16 A2997 RMK A01 T03520156  RH  031%=      5-min Rain = 0
KWE1 061730Z 20013KT 35/16 A2997 RMK A01 T03530155  RH  031%=      5-min Rain = 0
KWE1 061731Z 20009KT 35/16 A2997 RMK A01 T03520157  RH  031%=      5-min Rain = 0
KWE1 061732Z 20010KT 36/16 A2997 RMK A01 T03550158  RH  031%=      5-min Rain = 0
KWE1 061733Z 20010KT 36/16 A2997 RMK A01 T03560158  RH  031%=      5-min Rain = 0
KWE1 061734Z 22011KT 36/16 A2997 RMK A01 T03550160  RH  031%=      5-min Rain = 0
KWE1 061735Z 20009KT 36/16 A2997 RMK A01 T03580159  RH  031%=      5-min Rain = 0
KWE1 061736Z 21012KT 36/16 A2997 RMK A01 T03590159  RH  030%=      5-min Rain = 0
KWE1 061737Z 21013KT 36/16 A2997 RMK A01 T03560157  RH  031%=      5-min Rain = 0
KWE1 061738Z 21014KT 35/16 A2997 RMK A01 T03500155  RH  031%=      5-min Rain = 0
KWE1 061739Z 19015KT 35/16 A2997 RMK A01 T03490155  RH  032%=      5-min Rain = 0
KWE1 061740Z 20015KT 35/16 A2997 RMK A01 T03490160  RH  032%=      5-min Rain = 0
KWE1 061741Z 20011KT 35/16 A2997 RMK A01 T03480160  RH  033%=      5-min Rain = 0
KWE1 061742Z 20011KT 35/16 A2997 RMK A01 T03500157  RH  032%=      5-min Rain = 0
KWE1 061743Z 21010KT 35/16 A2997 RMK A01 T03500157  RH  032%=      5-min Rain = 0
KWE1 061744Z 20011KT 35/16 A2997 RMK A01 T03510158  RH  032%=      5-min Rain = 0
KWE1 061745Z 19012KT 35/16 A2997 RMK A01 T03520158  RH  031%=      5-min Rain = 0
KWE1 061746Z 20008G14KT 35/16 A2997 RMK A01 T03530156  RH  031%=      5-min Rain = 0
KWE1 061747Z 18011KT 35/16 A2997 RMK A01 T03510156  RH  031%=      5-min Rain = 0
KWE1 061748Z 18007KT 35/16 A2997 RMK A01 T03480157  RH  032%=      5-min Rain = 0
KWE1 061749Z 22010KT 35/16 A2997 RMK A01 T03480159  RH  033%=      5-min Rain = 0
KWE1 061750Z 22010KT 35/16 A2997 RMK A01 T03480157  RH  032%=      5-min Rain = 0
KWE1 061751Z 20011KT 35/16 A2997 RMK A01 T03480157  RH  032%=      5-min Rain = 0
KWE1 061752Z 19008KT 35/16 A2997 RMK A01 T03470158  RH  032%=      5-min Rain = 0
KWE1 061753Z 20008KT 35/16 A2997 RMK A01 T03460156  RH  032%=      5-min Rain = 0
KWE1 061754Z 20007G13KT 35/16 A2997 RMK A01 T03450158  RH  033%=      5-min Rain = 0
KWE1 061755Z 19009KT 35/16 A2997 RMK A01 T03470156  RH  032%=      5-min Rain = 0
KWE1 061756Z 21011KT 35/15 A2997 RMK A01 T03480154  RH  031%=      5-min Rain = 0
KWE1 061757Z 22010KT 35/15 A2997 RMK A01 T03490152  RH  031%=      5-min Rain = 0
KWE1 061758Z 22008KT 35/16 A2997 RMK A01 T03480155  RH  032%=      5-min Rain = 0
KWE1 061759Z 22010KT 35/16 A2997 RMK A01 T03500158  RH  032%=      5-min Rain = 0
KWE1 061800Z 24013KT 35/16 A2997 RMK A01 T03500155  RH  031%=      5-min Rain = 0
KWE1 061801Z 23010KT 35/15 A2997 RMK A01 T03490153  RH  031%=      5-min Rain = 0
KWE1 061802Z 24009KT 35/15 A2997 RMK A01 T03470154  RH  031%=      5-min Rain = 0
KWE1 061803Z 21009KT 35/16 A2997 RMK A01 T03480156  RH  032%=      5-min Rain = 0
KWE1 061804Z 20008KT 35/15 A2997 RMK A01 T03490152  RH  031%=      5-min Rain = 0
KWE1 061805Z 21008KT 35/16 A2997 RMK A01 T03480155  RH  032%=      5-min Rain = 0
KWE1 061806Z 22009KT 35/15 A2997 RMK A01 T03480149  RH  031%=      5-min Rain = 0
KWE1 061807Z 21013KT 35/15 A2997 RMK A01 T03480147  RH  030%=      5-min Rain = 0
KWE1 061808Z 21012KT 35/15 A2997 RMK A01 T03480147  RH  030%=      5-min Rain = 0
KWE1 061809Z 22013KT 35/15 A2997 RMK A01 T03480147  RH  030%=      5-min Rain = 0
KWE1 061810Z 22013KT 35/15 A2997 RMK A01 T03470147  RH  030%=      5-min Rain = 0
KWE1 061811Z 23012KT 35/15 A2997 RMK A01 T03470148  RH  030%=      5-min Rain = 0
KWE1 061812Z 23012KT 35/15 A2997 RMK A01 T03480147  RH  030%=      5-min Rain = 0
KWE1 061813Z 24011KT 35/15 A2997 RMK A01 T03490148  RH  030%=      5-min Rain = 0
KWE1 061814Z 24011KT 35/15 A2997 RMK A01 T03480149  RH  030%=      5-min Rain = 0
KWE1 061815Z 24008KT 35/15 A2997 RMK A01 T03470150  RH  031%=      5-min Rain = 0
KWE1 061816Z 23010KT 35/15 A2997 RMK A01 T03480153  RH  031%=      5-min Rain = 0
KWE1 061817Z 23011KT 35/15 A2997 RMK A01 T03480154  RH  031%=      5-min Rain = 0
KWE1 061818Z 23011KT 35/15 A2997 RMK A01 T03490154  RH  031%=      5-min Rain = 0
KWE1 061819Z 23010KT 35/16 A2997 RMK A01 T03490155  RH  032%=      5-min Rain = 0
KWE1 061820Z 23007KT 35/16 A2997 RMK A01 T03490158  RH  032%=      5-min Rain = 0
KWE1 061821Z 21007G12KT 35/16 A2997 RMK A01 T03480158  RH  032%=      5-min Rain = 0
KWE1 061822Z 21010KT 35/16 A2997 RMK A01 T03470158  RH  032%=      5-min Rain = 0
KWE1 061823Z 20008G13KT 35/16 A2997 RMK A01 T03460158  RH  033%=      5-min Rain = 0
KWE1 061824Z 25010KT 35/16 A2997 RMK A01 T03460159  RH  033%=      5-min Rain = 0
KWE1 061825Z 24007KT 35/16 A2997 RMK A01 T03490160  RH  032%=      5-min Rain = 0
KWE1 061826Z 24007KT 35/16 A2997 RMK A01 T03490159  RH  032%=      5-min Rain = 0
KWE1 061827Z 24009G14KT 35/16 A2997 RMK A01 T03480159  RH  032%=      5-min Rain = 0
KWE1 061828Z 23012KT 35/16 A2997 RMK A01 T03480158  RH  032%=      5-min Rain = 0
KWE1 061829Z 23010KT 35/16 A2997 RMK A01 T03470157  RH  032%=      5-min Rain = 0
KWE1 061830Z 23011KT 35/16 A2997 RMK A01 T03450158  RH  033%=      5-min Rain = 0
KWE1 061831Z 24012KT 34/16 A2997 RMK A01 T03430158  RH  033%=      5-min Rain = 0
KWE1 061832Z 25012KT 34/16 A2997 RMK A01 T03420157  RH  033%=      5-min Rain = 0
KWE1 061833Z 24011KT 34/16 A2997 RMK A01 T03400158  RH  034%=      5-min Rain = 0
KWE1 061834Z 23010KT 34/16 A2997 RMK A01 T03400159  RH  034%=      5-min Rain = 0
KWE1 061835Z 22010KT 34/16 A2997 RMK A01 T03410160  RH  034%=      5-min Rain = 0
KWE1 061836Z 20009KT 34/16 A2997 RMK A01 T03410162  RH  034%=      5-min Rain = 0
KWE1 061837Z 20012G18KT 34/16 A2997 RMK A01 T03410162  RH  034%=      5-min Rain = 0
KWE1 061838Z 21013KT 34/16 A2996 RMK A01 T03410161  RH  034%=      5-min Rain = 0
KWE1 061839Z 20011KT 34/16 A2996 RMK A01 T03400161  RH  034%=      5-min Rain = 0
KWE1 061840Z 20011KT 34/16 A2996 RMK A01 T03390160  RH  034%=      5-min Rain = 0
KWE1 061841Z 19013KT 34/16 A2996 RMK A01 T03390157  RH  034%=      5-min Rain = 0
KWE1 061842Z 19013KT 34/16 A2996 RMK A01 T03390157  RH  034%=      5-min Rain = 0
KWE1 061843Z 19011KT 34/16 A2996 RMK A01 T03390158  RH  034%=      5-min Rain = 0
KWE1 061844Z 20011KT 34/16 A2996 RMK A01 T03380159  RH  034%=      5-min Rain = 0
KWE1 061845Z 19013KT 34/16 A2996 RMK A01 T03390160  RH  034%=      5-min Rain = 0
KWE1 061846Z 19013KT 34/16 A2996 RMK A01 T03390161  RH  034%=      5-min Rain = 0
KWE1 061847Z 19014KT 34/16 A2995 RMK A01 T03390161  RH  034%=      5-min Rain = 0
KWE1 061848Z 19014KT 34/16 A2995 RMK A01 T03390160  RH  034%=      5-min Rain = 0
KWE1 061849Z 18014KT 34/16 A2995 RMK A01 T03380161  RH  035%=      5-min Rain = 0
KWE1 061850Z 18015KT 34/16 A2995 RMK A01 T03380163  RH  035%=      5-min Rain = 0
KWE1 061851Z 18016KT 34/16 A2994 RMK A01 T03370164  RH  036%=      5-min Rain = 0
KWE1 061852Z 18014KT 34/17 A2994 RMK A01 T03370165  RH  036%=      5-min Rain = 0
KWE1 061853Z 18014KT 34/16 A2994 RMK A01 T03360161  RH  035%=      5-min Rain = 0
KWE1 061854Z 18015KT 34/16 A2993 RMK A01 T03350161  RH  035%=      5-min Rain = 0
KWE1 061855Z 17014KT 34/16 A2993 RMK A01 T03350159  RH  035%=      5-min Rain = 0
KWE1 061856Z 17014KT 34/16 A2993 RMK A01 T03350159  RH  035%=      5-min Rain = 0
KWE1 061857Z 17018KT 34/16 A2992 RMK A01 T03350155  RH  034%=      5-min Rain = 0
KWE1 061858Z 17016KT 34/16 A2992 RMK A01 T03360155  RH  034%=      5-min Rain = 0
KWE1 061859Z 17014KT 34/15 A2992 RMK A01 T03360154  RH  034%=      5-min Rain = 0
KWE1 061900Z 17016KT 34/15 A2992 RMK A01 T03370154  RH  033%=      5-min Rain = 0
KWE1 061901Z 17018KT 34/15 A2992 RMK A01 T03380152  RH  033%=      5-min Rain = 0
KWE1 061902Z 17018KT 34/15 A2992 RMK A01 T03380151  RH  033%=      5-min Rain = 0
KWE1 061903Z 18018G23KT 34/15 A2992 RMK A01 T03380151  RH  032%=      5-min Rain = 0
KWE1 061904Z 19013KT 34/15 A2992 RMK A01 T03390151  RH  033%=      5-min Rain = 0
KWE1 061905Z 19012KT 34/15 A2992 RMK A01 T03400153  RH  033%=      5-min Rain = 0
KWE1 061906Z 19012KT 34/15 A2993 RMK A01 T03400153  RH  033%=      5-min Rain = 0
KWE1 061907Z 19014KT 34/15 A2993 RMK A01 T03400152  RH  032%=      5-min Rain = 0
KWE1 061908Z 20015KT 34/15 A2993 RMK A01 T03410152  RH  032%=      5-min Rain = 0
KWE1 061909Z 20013KT 34/15 A2993 RMK A01 T03410153  RH  032%=      5-min Rain = 0
KWE1 061910Z 20011KT 34/15 A2993 RMK A01 T03400154  RH  033%=      5-min Rain = 0
KWE1 061911Z 20012KT 34/16 A2993 RMK A01 T03410155  RH  033%=      5-min Rain = 0
KWE1 061912Z 20013KT 34/16 A2993 RMK A01 T03410156  RH  033%=      5-min Rain = 0
KWE1 061913Z 19012KT 34/16 A2993 RMK A01 T03410156  RH  033%=      5-min Rain = 0
KWE1 061914Z 19011KT 34/16 A2994 RMK A01 T03410159  RH  034%=      5-min Rain = 0
KWE1 061915Z 19015G21KT 34/16 A2994 RMK A01 T03410160  RH  034%=      5-min Rain = 0
KWE1 061916Z 19010KT 34/16 A2994 RMK A01 T03400163  RH  035%=      5-min Rain = 0
KWE1 061917Z 19012KT 34/17 A2994 RMK A01 T03410165  RH  035%=      5-min Rain = 0
KWE1 061918Z 19013KT 34/17 A2994 RMK A01 T03420165  RH  035%=      5-min Rain = 0
KWE1 061919Z 19011KT 34/17 A2994 RMK A01 T03420166  RH  035%=      5-min Rain = 0
KWE1 061920Z 19008KT 34/17 A2994 RMK A01 T03430166  RH  035%=      5-min Rain = 0
KWE1 061921Z 19009KT 34/17 A2994 RMK A01 T03440166  RH  035%=      5-min Rain = 0
KWE1 061922Z 18010KT 34/17 A2994 RMK A01 T03440168  RH  035%=      5-min Rain = 0
KWE1 061923Z 18013KT 35/17 A2994 RMK A01 T03450170  RH  035%=      5-min Rain = 0
KWE1 061924Z 18011KT 35/17 A2994 RMK A01 T03460169  RH  035%=      5-min Rain = 0
KWE1 061925Z 18012KT 35/17 A2994 RMK A01 T03470170  RH  035%=      5-min Rain = 0
KWE1 061926Z 17012KT 35/17 A2994 RMK A01 T03480168  RH  034%=      5-min Rain = 0
KWE1 061927Z 18011KT 35/17 A2994 RMK A01 T03480169  RH  035%=      5-min Rain = 0
KWE1 061928Z 19011KT 35/17 A2994 RMK A01 T03480168  RH  034%=      5-min Rain = 0
KWE1 061929Z 17011KT 35/17 A2994 RMK A01 T03520171  RH  034%=      5-min Rain = 0
KWE1 061930Z 17010KT 36/17 A2994 RMK A01 T03550171  RH  034%=      5-min Rain = 0
KWE1 061931Z 18009KT 36/17 A2994 RMK A01 T03560171  RH  033%=      5-min Rain = 0
KWE1 061932Z 18008KT 36/17 A2994 RMK A01 T03570172  RH  034%=      5-min Rain = 0
KWE1 061933Z 17010KT 36/17 A2994 RMK A01 T03600173  RH  033%=      5-min Rain = 0
KWE1 061934Z 16009KT 36/17 A2994 RMK A01 T03610167  RH  032%=      5-min Rain = 0
KWE1 061935Z 18011KT 36/17 A2994 RMK A01 T03600165  RH  031%=      5-min Rain = 0
KWE1 061936Z 19009KT 36/17 A2994 RMK A01 T03590165  RH  032%=      5-min Rain = 0
KWE1 061937Z 19011KT 36/16 A2994 RMK A01 T03600163  RH  031%=      5-min Rain = 0
KWE1 061938Z 18013KT 36/16 A2994 RMK A01 T03580159  RH  031%=      5-min Rain = 0
KWE1 061939Z 19012KT 36/16 A2994 RMK A01 T03560161  RH  031%=      5-min Rain = 0
KWE1 061940Z 19012KT 36/16 A2994 RMK A01 T03550162  RH  032%=      5-min Rain = 0
KWE1 061941Z 18009KT 36/16 A2994 RMK A01 T03550163  RH  032%=      5-min Rain = 0
KWE1 061942Z 19010KT 36/16 A2994 RMK A01 T03560163  RH  032%=      5-min Rain = 0
KWE1 061943Z 18010KT 36/16 A2993 RMK A01 T03560164  RH  032%=      5-min Rain = 0
KWE1 061944Z 18011KT 36/16 A2994 RMK A01 T03560164  RH  032%=      5-min Rain = 0
KWE1 061945Z 19015KT 36/17 A2993 RMK A01 T03550166  RH  033%=      5-min Rain = 0
KWE1 061946Z 19012KT 36/17 A2993 RMK A01 T03560167  RH  033%=      5-min Rain = 0
KWE1 061947Z 20013KT 36/17 A2993 RMK A01 T03560168  RH  033%=      5-min Rain = 0
KWE1 061948Z 19011KT 36/17 A2993 RMK A01 T03550167  RH  033%=      5-min Rain = 0
KWE1 061949Z 19010KT 35/17 A2993 RMK A01 T03540168  RH  033%=      5-min Rain = 0
KWE1 061950Z 16012KT 36/17 A2993 RMK A01 T03550170  RH  034%=      5-min Rain = 0
KWE1 061951Z 16012KT 36/17 A2994 RMK A01 T03560168  RH  033%=      5-min Rain = 0
KWE1 061952Z 17014KT 36/17 A2994 RMK A01 T03560167  RH  033%=      5-min Rain = 0
KWE1 061953Z 18013KT 36/17 A2994 RMK A01 T03550166  RH  033%=      5-min Rain = 0
KWE1 061954Z 18012KT 35/16 A2994 RMK A01 T03540164  RH  032%=      5-min Rain = 0
KWE1 061955Z 17009KT 35/17 A2994 RMK A01 T03530165  RH  033%=      5-min Rain = 0
KWE1 061956Z 17013KT 35/17 A2994 RMK A01 T03540165  RH  033%=      5-min Rain = 0
KWE1 061957Z 18010KT 35/16 A2994 RMK A01 T03530163  RH  032%=      5-min Rain = 0
KWE1 061958Z 18013KT 35/16 A2994 RMK A01 T03520162  RH  032%=      5-min Rain = 0
KWE1 061959Z 16010KT 35/16 A2994 RMK A01 T03510162  RH  033%=      5-min Rain = 0
KWE1 062000Z 18010KT 35/16 A2994 RMK A01 T03530164  RH  033%=      5-min Rain = 0
KWE1 062001Z 17010KT 35/16 A2994 RMK A01 T03540164  RH  032%=      5-min Rain = 0
KWE1 062002Z 16011KT 35/16 A2994 RMK A01 T03540164  RH  032%=      5-min Rain = 0
KWE1 062003Z 18012KT 35/16 A2994 RMK A01 T03540163  RH  032%=      5-min Rain = 0
KWE1 062004Z 19011KT 36/16 A2994 RMK A01 T03550164  RH  032%=      5-min Rain = 0
KWE1 062005Z 19010KT 36/16 A2994 RMK A01 T03560163  RH  032%=      5-min Rain = 0
KWE1 062006Z 18012KT 36/16 A2994 RMK A01 T03570162  RH  032%=      5-min Rain = 0
KWE1 062007Z 17013KT 36/16 A2994 RMK A01 T03570161  RH  031%=      5-min Rain = 0
KWE1 062008Z 17012KT 36/16 A2994 RMK A01 T03560161  RH  032%=      5-min Rain = 0
KWE1 062009Z 17013KT 36/16 A2994 RMK A01 T03550162  RH  032%=      5-min Rain = 0
KWE1 062010Z 17011KT 35/16 A2994 RMK A01 T03540161  RH  032%=      5-min Rain = 0
KWE1 062011Z 17011KT 35/16 A2994 RMK A01 T03530161  RH  032%=      5-min Rain = 0
KWE1 062012Z 16010KT 35/16 A2994 RMK A01 T03530160  RH  032%=      5-min Rain = 0
KWE1 062013Z 19012KT 35/16 A2994 RMK A01 T03530161  RH  032%=      5-min Rain = 0
KWE1 062014Z 19011KT 35/16 A2994 RMK A01 T03530159  RH  032%=      5-min Rain = 0
KWE1 062015Z 17007KT 35/16 A2994 RMK A01 T03520160  RH  032%=      5-min Rain = 0
KWE1 062016Z 17006KT 35/16 A2994 RMK A01 T03520162  RH  032%=      5-min Rain = 0
KWE1 062017Z 18009KT 35/16 A2994 RMK A01 T03530162  RH  032%=      5-min Rain = 0
KWE1 062018Z 19009KT 35/16 A2994 RMK A01 T03530161  RH  032%=      5-min Rain = 0
KWE1 062019Z 19011KT 35/16 A2994 RMK A01 T03540158  RH  031%=      5-min Rain = 0
KWE1 062020Z 18008KT 35/16 A2994 RMK A01 T03540159  RH  031%=      5-min Rain = 0
KWE1 062021Z 18012KT 35/16 A2994 RMK A01 T03540160  RH  032%=      5-min Rain = 0
KWE1 062022Z 18010KT 35/16 A2994 RMK A01 T03540157  RH  031%=      5-min Rain = 0
KWE1 062023Z 18011KT 35/16 A2994 RMK A01 T03540160  RH  032%=      5-min Rain = 0
KWE1 062024Z 18010KT 35/16 A2994 RMK A01 T03530160  RH  032%=      5-min Rain = 0
KWE1 062025Z 18009KT 35/16 A2994 RMK A01 T03530158  RH  031%=      5-min Rain = 0
KWE1 062026Z 17008KT 35/16 A2994 RMK A01 T03530157  RH  031%=      5-min Rain = 0
KWE1 062027Z 17010KT 35/16 A2994 RMK A01 T03530158  RH  031%=      5-min Rain = 0
KWE1 062028Z 18011KT 35/16 A2994 RMK A01 T03530157  RH  031%=      5-min Rain = 0
KWE1 062029Z 19011KT 35/16 A2994 RMK A01 T03540159  RH  031%=      5-min Rain = 0
KWE1 062030Z 18010KT 35/16 A2994 RMK A01 T03530159  RH  032%=      5-min Rain = 0
KWE1 062031Z 20008KT 35/16 A2994 RMK A01 T03520159  RH  032%=      5-min Rain = 0
KWE1 062032Z 20008KT 35/16 A2994 RMK A01 T03510159  RH  032%=      5-min Rain = 0
KWE1 062033Z 19007KT 35/16 A2994 RMK A01 T03510159  RH  032%=      5-min Rain = 0
KWE1 062034Z 19006KT 35/16 A2994 RMK A01 T03510159  RH  032%=      5-min Rain = 0
KWE1 062035Z 19008KT 35/16 A2994 RMK A01 T03510162  RH  032%=      5-min Rain = 0
KWE1 062036Z 19011KT 35/16 A2994 RMK A01 T03510160  RH  032%=      5-min Rain = 0
KWE1 062037Z 19010KT 35/16 A2994 RMK A01 T03510158  RH  032%=      5-min Rain = 0
KWE1 062038Z 20009KT 35/16 A2994 RMK A01 T03510158  RH  032%=      5-min Rain = 0
KWE1 062039Z 21008KT 35/16 A2995 RMK A01 T03520159  RH  032%=      5-min Rain = 0
KWE1 062040Z 21009KT 35/16 A2995 RMK A01 T03520159  RH  032%=      5-min Rain = 0
KWE1 062041Z 21010KT 35/16 A2995 RMK A01 T03520158  RH  032%=      5-min Rain = 0
KWE1 062042Z 21010KT 35/16 A2995 RMK A01 T03520157  RH  031%=      5-min Rain = 0
KWE1 062043Z 22010KT 35/16 A2995 RMK A01 T03520157  RH  031%=      5-min Rain = 0
KWE1 062044Z 22008KT 35/16 A2995 RMK A01 T03510158  RH  032%=      5-min Rain = 0
KWE1 062045Z 23008KT 35/16 A2995 RMK A01 T03510159  RH  032%=      5-min Rain = 0
KWE1 062046Z 23009KT 35/16 A2995 RMK A01 T03520159  RH  032%=      5-min Rain = 0
KWE1 062047Z 21010KT 35/16 A2995 RMK A01 T03520159  RH  032%=      5-min Rain = 0
KWE1 062048Z 20008KT 35/16 A2995 RMK A01 T03520160  RH  032%=      5-min Rain = 0
KWE1 062049Z 21007KT 35/16 A2995 RMK A01 T03510159  RH  032%=      5-min Rain = 0
KWE1 062050Z 21006KT 35/16 A2995 RMK A01 T03510160  RH  032%=      5-min Rain = 0
KWE1 062051Z 21008KT 35/16 A2995 RMK A01 T03510160  RH  032%=      5-min Rain = 0
KWE1 062052Z 20007KT 35/16 A2995 RMK A01 T03510158  RH  032%=      5-min Rain = 0
KWE1 062053Z 20009KT 35/16 A2995 RMK A01 T03500158  RH  032%=      5-min Rain = 0
KWE1 062054Z 20007KT 35/16 A2995 RMK A01 T03500158  RH  032%=      5-min Rain = 0
KWE1 062055Z 20006KT 35/16 A2994 RMK A01 T03500157  RH  032%=      5-min Rain = 0
KWE1 062056Z 20006KT 35/16 A2994 RMK A01 T03490158  RH  032%=      5-min Rain = 0
KWE1 062057Z 21007KT 35/16 A2994 RMK A01 T03490158  RH  032%=      5-min Rain = 0
KWE1 062058Z 21007KT 35/16 A2994 RMK A01 T03490157  RH  032%=      5-min Rain = 0
KWE1 062059Z 21006KT 35/16 A2994 RMK A01 T03480158  RH  032%=      5-min Rain = 0
KWE1 062100Z 21007KT 35/16 A2994 RMK A01 T03490160  RH  032%=      5-min Rain = 0
KWE1 062101Z 20008KT 35/16 A2994 RMK A01 T03480160  RH  033%=      5-min Rain = 0
KWE1 062102Z 21007KT 35/16 A2994 RMK A01 T03480158  RH  032%=      5-min Rain = 0
KWE1 062103Z 20005KT 35/16 A2994 RMK A01 T03480157  RH  032%=      5-min Rain = 0
KWE1 062104Z 20006KT 35/16 A2994 RMK A01 T03480158  RH  032%=      5-min Rain = 0
KWE1 062105Z 20006KT 35/16 A2994 RMK A01 T03480157  RH  032%=      5-min Rain = 0
KWE1 062106Z 20005KT 35/16 A2994 RMK A01 T03480158  RH  032%=      5-min Rain = 0
KWE1 062107Z 20005KT 35/16 A2994 RMK A01 T03480159  RH  032%=      5-min Rain = 0
KWE1 062108Z 19004KT 35/16 A2994 RMK A01 T03470159  RH  033%=      5-min Rain = 0
KWE1 062109Z 19003KT 35/16 A2994 RMK A01 T03470160  RH  033%=      5-min Rain = 0
KWE1 062110Z 19003KT 35/16 A2994 RMK A01 T03470161  RH  033%=      5-min Rain = 0
KWE1 062111Z 18003KT 35/16 A2994 RMK A01 T03460162  RH  033%=      5-min Rain = 0
KWE1 062112Z 18003KT 35/16 A2994 RMK A01 T03460160  RH  033%=      5-min Rain = 0
KWE1 062113Z 18003KT 35/16 A2994 RMK A01 T03460161  RH  033%=      5-min Rain = 0
KWE1 062114Z 19003KT 35/16 A2994 RMK A01 T03450162  RH  034%=      5-min Rain = 0
KWE1 062115Z 19003KT 35/16 A2994 RMK A01 T03450163  RH  034%=      5-min Rain = 0
KWE1 062116Z 19003KT 34/16 A2994 RMK A01 T03440164  RH  034%=      5-min Rain = 0
KWE1 062117Z 19003KT 34/16 A2994 RMK A01 T03440163  RH  034%=      5-min Rain = 0
KWE1 062118Z 20003KT 34/16 A2994 RMK A01 T03440157  RH  033%=      5-min Rain = 0
KWE1 062119Z 19003KT 35/16 A2994 RMK A01 T03450161  RH  033%=      5-min Rain = 0
KWE1 062120Z 18003KT 35/16 A2994 RMK A01 T03450164  RH  034%=      5-min Rain = 0
KWE1 062121Z 17003KT 35/16 A2994 RMK A01 T03450162  RH  034%=      5-min Rain = 0
KWE1 062122Z 16003KT 35/17 A2994 RMK A01 T03450166  RH  034%=      5-min Rain = 0
KWE1 062123Z 15003KT 34/17 A2994 RMK A01 T03440167  RH  035%=      5-min Rain = 0
KWE1 062124Z 16002KT 34/17 A2994 RMK A01 T03440165  RH  035%=      5-min Rain = 0
KWE1 062125Z 15003KT 34/17 A2994 RMK A01 T03440165  RH  035%=      5-min Rain = 0
KWE1 062126Z 14003KT 34/17 A2994 RMK A01 T03440168  RH  035%=      5-min Rain = 0
KWE1 062127Z 13003KT 34/17 A2994 RMK A01 T03430168  RH  035%=      5-min Rain = 0
KWE1 062128Z 14005KT 34/17 A2993 RMK A01 T03430170  RH  036%=      5-min Rain = 0
KWE1 062129Z 13006KT 34/17 A2993 RMK A01 T03420168  RH  036%=      5-min Rain = 0
KWE1 062130Z 13007KT 34/17 A2993 RMK A01 T03420165  RH  035%=      5-min Rain = 0
KWE1 062131Z 12006KT 34/16 A2993 RMK A01 T03420163  RH  034%=      5-min Rain = 0
KWE1 062132Z 13007KT 34/16 A2993 RMK A01 T03430164  RH  034%=      5-min Rain = 0
KWE1 062133Z 12008KT 34/16 A2993 RMK A01 T03440163  RH  034%=      5-min Rain = 0
KWE1 062134Z 13007KT 34/16 A2992 RMK A01 T03440163  RH  034%=      5-min Rain = 0
KWE1 062135Z 13008KT 35/16 A2992 RMK A01 T03450164  RH  034%=      5-min Rain = 0
KWE1 062136Z 13009KT 35/17 A2992 RMK A01 T03450165  RH  034%=      5-min Rain = 0
KWE1 062137Z 13009KT 35/17 A2992 RMK A01 T03450165  RH  034%=      5-min Rain = 0
KWE1 062138Z 13009KT 35/17 A2992 RMK A01 T03450166  RH  034%=      5-min Rain = 0
KWE1 062139Z 13009KT 35/17 A2992 RMK A01 T03450168  RH  035%=      5-min Rain = 0
KWE1 062140Z 13009KT 35/17 A2992 RMK A01 T03460169  RH  035%=      5-min Rain = 0
KWE1 062141Z 14008KT 35/17 A2992 RMK A01 T03450170  RH  035%=      5-min Rain = 0
KWE1 062142Z 14007KT 35/17 A2992 RMK A01 T03450173  RH  036%=      5-min Rain = 0
KWE1 062143Z 14008KT 34/18 A2992 RMK A01 T03440176  RH  037%=      5-min Rain = 0
KWE1 062144Z 14007KT 34/18 A2992 RMK A01 T03420177  RH  038%=      5-min Rain = 0
KWE1 062145Z 13007KT 34/18 A2992 RMK A01 T03400180  RH  039%=      5-min Rain = 0
KWE1 062146Z 14007KT 34/18 A2992 RMK A01 T03390179  RH  039%=      5-min Rain = 0
KWE1 062147Z 13006KT 34/18 A2992 RMK A01 T03380181  RH  039%=      5-min Rain = 0
KWE1 062148Z 13007KT 34/18 A2992 RMK A01 T03370181  RH  040%=      5-min Rain = 0
KWE1 062149Z 12007KT 34/18 A2992 RMK A01 T03370181  RH  040%=      5-min Rain = 0
KWE1 062150Z 13007KT 34/18 A2992 RMK A01 T03370181  RH  040%=      5-min Rain = 0
KWE1 062151Z 12008KT 34/18 A2991 RMK A01 T03370180  RH  039%=      5-min Rain = 0
KWE1 062152Z 12008KT 34/18 A2991 RMK A01 T03370179  RH  039%=      5-min Rain = 0
KWE1 062153Z 12009KT 34/18 A2991 RMK A01 T03390182  RH  039%=      5-min Rain = 0
KWE1 062154Z 13008KT 34/18 A2991 RMK A01 T03390181  RH  039%=      5-min Rain = 0
KWE1 062155Z 12009KT 34/18 A2991 RMK A01 T03390180  RH  039%=      5-min Rain = 0
KWE1 062156Z 12010KT 34/18 A299 RMK A01 T03410177  RH  038%=      5-min Rain = 0
KWE1 062157Z 12008KT 34/18 A299 RMK A01 T03440182  RH  038%=      5-min Rain = 0
KWE1 062158Z 13009KT 35/19 A299 RMK A01 T03450187  RH  039%=      5-min Rain = 0
KWE1 062159Z 13010KT 35/19 A299 RMK A01 T03450186  RH  039%=      5-min Rain = 0
KWE1 062200Z 13011KT 35/19 A299 RMK A01 T03460185  RH  039%=      5-min Rain = 0
KWE1 062201Z 13013KT 35/18 A299 RMK A01 T03480181  RH  037%=      5-min Rain = 0
KWE1 062202Z 14011KT 35/18 A299 RMK A01 T03490182  RH  037%=      5-min Rain = 0
KWE1 062203Z 13011KT 35/18 A299 RMK A01 T03510182  RH  037%=      5-min Rain = 0
KWE1 062204Z 14011KT 35/18 A299 RMK A01 T03540180  RH  036%=      5-min Rain = 0
KWE1 062205Z 14011KT 36/18 A299 RMK A01 T03560180  RH  036%=      5-min Rain = 0
KWE1 062206Z 13009KT 36/18 A299 RMK A01 T03580181  RH  035%=      5-min Rain = 0
KWE1 062207Z 13010KT 36/18 A299 RMK A01 T03600179  RH  034%=      5-min Rain = 0
KWE1 062208Z 13012KT 36/18 A299 RMK A01 T03630177  RH  034%=      5-min Rain = 0
KWE1 062209Z 13011KT 36/18 A299 RMK A01 T03630176  RH  033%=      5-min Rain = 0
KWE1 062210Z 14012KT 36/18 A299 RMK A01 T03630176  RH  033%=      5-min Rain = 0
KWE1 062211Z 15012KT 36/18 A299 RMK A01 T03630177  RH  034%=      5-min Rain = 0
KWE1 062212Z 14012KT 36/18 A299 RMK A01 T03620180  RH  034%=      5-min Rain = 0
KWE1 062213Z 14013KT 36/18 A299 RMK A01 T03620176  RH  033%=      5-min Rain = 0
KWE1 062214Z 14011KT 36/18 A299 RMK A01 T03620178  RH  034%=      5-min Rain = 0
KWE1 062215Z 14011KT 36/18 A299 RMK A01 T03630181  RH  035%=      5-min Rain = 0
KWE1 062216Z 14011KT 36/18 A299 RMK A01 T03630180  RH  034%=      5-min Rain = 0
KWE1 062217Z 15011G16KT 36/18 A299 RMK A01 T03620181  RH  034%=      5-min Rain = 0
KWE1 062218Z 13010G15KT 36/18 A299 RMK A01 T03600181  RH  035%=      5-min Rain = 0
KWE1 062219Z 14010KT 36/18 A299 RMK A01 T03600180  RH  035%=      5-min Rain = 0
KWE1 062220Z 14012KT 36/18 A299 RMK A01 T03610179  RH  034%=      5-min Rain = 0
KWE1 062221Z 14009KT 36/18 A299 RMK A01 T03610181  RH  035%=      5-min Rain = 0
KWE1 062222Z 14011KT 36/18 A299 RMK A01 T03610181  RH  035%=      5-min Rain = 0
KWE1 062223Z 13011KT 36/18 A299 RMK A01 T03610179  RH  034%=      5-min Rain = 0
KWE1 062224Z 14008KT 36/18 A299 RMK A01 T03600180  RH  035%=      5-min Rain = 0
KWE1 062225Z 15010KT 36/18 A299 RMK A01 T03600181  RH  035%=      5-min Rain = 0
KWE1 062226Z 14010G15KT 36/18 A299 RMK A01 T03620181  RH  034%=      5-min Rain = 0
KWE1 062227Z 14013KT 36/18 A299 RMK A01 T03640179  RH  034%=      5-min Rain = 0
KWE1 062228Z 14012KT 36/18 A299 RMK A01 T03630179  RH  034%=      5-min Rain = 0
KWE1 062229Z 15010KT 36/18 A299 RMK A01 T03640180  RH  034%=      5-min Rain = 0
KWE1 062230Z 14013KT 37/18 A299 RMK A01 T03680179  RH  033%=      5-min Rain = 0
KWE1 062231Z 14013KT 37/18 A299 RMK A01 T03690177  RH  032%=      5-min Rain = 0
KWE1 062232Z 14014KT 37/17 A299 RMK A01 T03680174  RH  032%=      5-min Rain = 0
KWE1 062233Z 14016G21KT 37/17 A299 RMK A01 T03660174  RH  032%=      5-min Rain = 0
KWE1 062234Z 14014KT 36/18 A299 RMK A01 T03640180  RH  034%=      5-min Rain = 0
KWE1 062235Z 14014KT 36/18 A299 RMK A01 T03630182  RH  035%=      5-min Rain = 0
KWE1 062236Z 13014KT 36/18 A299 RMK A01 T03590178  RH  034%=      5-min Rain = 0
KWE1 062237Z 13016KT 36/18 A299 RMK A01 T03550175  RH  035%=      5-min Rain = 0
KWE1 062238Z 14012KT 35/18 A299 RMK A01 T03530178  RH  036%=      5-min Rain = 0
KWE1 062239Z 14013KT 35/18 A299 RMK A01 T03520179  RH  036%=      5-min Rain = 0
KWE1 062240Z 14014KT 35/18 A299 RMK A01 T03500179  RH  036%=      5-min Rain = 0
KWE1 062241Z 14013KT 35/18 A299 RMK A01 T03480179  RH  037%=      5-min Rain = 0
KWE1 062242Z 14014KT 35/18 A299 RMK A01 T03470179  RH  037%=      5-min Rain = 0
KWE1 062243Z 13016KT 35/18 A299 RMK A01 T03460178  RH  037%=      5-min Rain = 0
KWE1 062244Z 13015KT 35/18 A299 RMK A01 T03450177  RH  037%=      5-min Rain = 0
KWE1 062245Z 13016KT 35/18 A299 RMK A01 T03450177  RH  037%=      5-min Rain = 0
KWE1 062246Z 13016KT 35/18 A299 RMK A01 T03460176  RH  037%=      5-min Rain = 0
KWE1 062247Z 13016KT 35/17 A299 RMK A01 T03470174  RH  036%=      5-min Rain = 0
KWE1 062248Z 12016G21KT 35/17 A299 RMK A01 T03490174  RH  035%=      5-min Rain = 0
KWE1 062249Z 13013G18KT 35/17 A299 RMK A01 T03490174  RH  035%=      5-min Rain = 0
KWE1 062250Z 14013KT 35/18 A299 RMK A01 T03480176  RH  036%=      5-min Rain = 0
KWE1 062251Z 14016KT 35/18 A2989 RMK A01 T03480175  RH  036%=      5-min Rain = 0
KWE1 062252Z 14016KT 35/17 A2989 RMK A01 T03480174  RH  036%=      5-min Rain = 0
KWE1 062253Z 14012KT 35/18 A299 RMK A01 T03470176  RH  036%=      5-min Rain = 0
KWE1 062254Z 13014KT 35/18 A2989 RMK A01 T03470175  RH  036%=      5-min Rain = 0
KWE1 062255Z 13013KT 35/17 A2989 RMK A01 T03480174  RH  036%=      5-min Rain = 0
KWE1 062256Z 13013KT 35/17 A2989 RMK A01 T03500174  RH  035%=      5-min Rain = 0
KWE1 062257Z 12010KT 35/18 A2989 RMK A01 T03500176  RH  036%=      5-min Rain = 0
KWE1 062258Z 13012KT 35/17 A2989 RMK A01 T03500174  RH  035%=      5-min Rain = 0
KWE1 062259Z 13013KT 35/17 A2989 RMK A01 T03500174  RH  035%=      5-min Rain = 0
KWE1 062300Z 13013KT 35/17 A2989 RMK A01 T03490174  RH  036%=      5-min Rain = 0
KWE1 062301Z 13012KT 35/18 A2989 RMK A01 T03480175  RH  036%=      5-min Rain = 0
KWE1 062302Z 13013KT 35/17 A2989 RMK A01 T03470173  RH  036%=      5-min Rain = 0
KWE1 062303Z 12010KT 35/17 A2989 RMK A01 T03450174  RH  036%=      5-min Rain = 0
KWE1 062304Z 12011G16KT 35/17 A2989 RMK A01 T03460174  RH  036%=      5-min Rain = 0
KWE1 062305Z 12013KT 35/17 A2989 RMK A01 T03480173  RH  036%=      5-min Rain = 0
KWE1 062306Z 13010KT 35/17 A2989 RMK A01 T03480172  RH  035%=      5-min Rain = 0
KWE1 062307Z 13010KT 35/18 A2989 RMK A01 T03490175  RH  036%=      5-min Rain = 0
KWE1 062308Z 13010KT 35/17 A2989 RMK A01 T03500174  RH  035%=      5-min Rain = 0
KWE1 062309Z 13011KT 35/18 A2989 RMK A01 T03520176  RH  035%=      5-min Rain = 0
KWE1 062310Z 14010KT 35/18 A2989 RMK A01 T03540176  RH  035%=      5-min Rain = 0
KWE1 062311Z 13012KT 36/18 A2989 RMK A01 T03550176  RH  035%=      5-min Rain = 0
KWE1 062312Z 13012KT 36/18 A2989 RMK A01 T03550175  RH  035%=      5-min Rain = 0
KWE1 062313Z 12011KT 35/18 A2989 RMK A01 T03540175  RH  035%=      5-min Rain = 0
KWE1 062314Z 14011KT 36/18 A2988 RMK A01 T03550176  RH  035%=      5-min Rain = 0
KWE1 062315Z 13011G16KT 35/18 A2989 RMK A01 T03540176  RH  035%=      5-min Rain = 0
KWE1 062316Z 14010KT 36/18 A2988 RMK A01 T03550175  RH  035%=      5-min Rain = 0
KWE1 062317Z 13012KT 36/18 A2988 RMK A01 T03570176  RH  034%=      5-min Rain = 0
KWE1 062318Z 13014KT 36/17 A2988 RMK A01 T03570174  RH  034%=      5-min Rain = 0
KWE1 062319Z 13012KT 36/17 A2988 RMK A01 T03570174  RH  034%=      5-min Rain = 0
KWE1 062320Z 14013KT 36/17 A2988 RMK A01 T03570174  RH  034%=      5-min Rain = 0
KWE1 062321Z 13010G15KT 36/18 A2988 RMK A01 T03580175  RH  034%=      5-min Rain = 0
KWE1 062322Z 14013KT 36/17 A2988 RMK A01 T03590173  RH  033%=      5-min Rain = 0
KWE1 062323Z 14011KT 36/17 A2988 RMK A01 T03590173  RH  033%=      5-min Rain = 0
KWE1 062324Z 12009KT 36/17 A2988 RMK A01 T03590174  RH  033%=      5-min Rain = 0
KWE1 062325Z 14009KT 36/17 A2988 RMK A01 T03600173  RH  033%=      5-min Rain = 0
KWE1 062326Z 13012G17KT 36/18 A2988 RMK A01 T03620175  RH  033%=      5-min Rain = 0
KWE1 062327Z 13013KT 36/17 A2988 RMK A01 T03620173  RH  033%=      5-min Rain = 0
KWE1 062328Z 13012KT 36/17 A2988 RMK A01 T03610173  RH  033%=      5-min Rain = 0
KWE1 062329Z 13012KT 36/17 A2988 RMK A01 T03610173  RH  033%=      5-min Rain = 0
KWE1 062330Z 13011KT 36/17 A2988 RMK A01 T03610173  RH  033%=      5-min Rain = 0
KWE1 062331Z 14010KT 36/17 A2988 RMK A01 T03610174  RH  033%=      5-min Rain = 0
KWE1 062332Z 14010KT 36/17 A2988 RMK A01 T03610172  RH  033%=      5-min Rain = 0
KWE1 062333Z 15012KT 36/17 A2988 RMK A01 T03630172  RH  033%=      5-min Rain = 0
KWE1 062334Z 14013KT 36/17 A2988 RMK A01 T03640171  RH  032%=      5-min Rain = 0
KWE1 062335Z 14013KT 36/17 A2988 RMK A01 T03640170  RH  032%=      5-min Rain = 0
KWE1 062336Z 14012KT 36/17 A2988 RMK A01 T03640172  RH  032%=      5-min Rain = 0
KWE1 062337Z 14010KT 36/17 A2988 RMK A01 T03640171  RH  032%=      5-min Rain = 0
KWE1 062338Z 14010KT 36/17 A2988 RMK A01 T03640170  RH  032%=      5-min Rain = 0
KWE1 062339Z 14010KT 37/17 A2988 RMK A01 T03650171  RH  032%=      5-min Rain = 0
KWE1 062340Z 14012KT 37/17 A2988 RMK A01 T03670169  RH  031%=      5-min Rain = 0
KWE1 062341Z 14010KT 37/17 A2988 RMK A01 T03670169  RH  031%=      5-min Rain = 0
KWE1 062342Z 15010KT 37/17 A2988 RMK A01 T03660169  RH  031%=      5-min Rain = 0
KWE1 062343Z 15013KT 37/17 A2988 RMK A01 T03670168  RH  031%=      5-min Rain = 0
KWE1 062344Z 15011KT 37/17 A2988 RMK A01 T03660168  RH  031%=      5-min Rain = 0
KWE1 062345Z 15012KT 37/17 A2988 RMK A01 T03660168  RH  031%=      5-min Rain = 0
KWE1 062346Z 16009KT 37/17 A2988 RMK A01 T03650167  RH  031%=      5-min Rain = 0
KWE1 062347Z 14008KT 37/17 A2988 RMK A01 T03650168  RH  031%=      5-min Rain = 0
KWE1 062348Z 13009KT 37/17 A2988 RMK A01 T03650167  RH  031%=      5-min Rain = 0
KWE1 062349Z 15007KT 37/17 A2988 RMK A01 T03650168  RH  031%=      5-min Rain = 0
KWE1 062350Z 14009KT 37/17 A2988 RMK A01 T03650168  RH  031%=      5-min Rain = 0
KWE1 062351Z 15010KT 37/17 A2988 RMK A01 T03660166  RH  031%=      5-min Rain = 0
KWE1 062352Z 15009KT 37/17 A2988 RMK A01 T03660167  RH  031%=      5-min Rain = 0
KWE1 062353Z 15011KT 37/17 A2988 RMK A01 T03660166  RH  031%=      5-min Rain = 0
KWE1 062354Z 14011KT 37/16 A2988 RMK A01 T03670164  RH  030%=      5-min Rain = 0
KWE1 062355Z 14011KT 37/16 A2988 RMK A01 T03670162  RH  030%=      5-min Rain = 0
KWE1 062356Z 14011KT 37/16 A2988 RMK A01 T03670163  RH  030%=      5-min Rain = 0
KWE1 062357Z 14012KT 37/16 A2988 RMK A01 T03670162  RH  030%=      5-min Rain = 0
KWE1 062358Z 14013KT 37/16 A2988 RMK A01 T03660162  RH  030%=      5-min Rain = 0
KWE1 062359Z 14012KT 37/16 A2988 RMK A01 T03660160  RH  030%=      5-min Rain = 0
KWE1 070000Z 15012KT 37/16 A2988 RMK A01 T03660159  RH  029%=      5-min Rain = 0
KWE1 070001Z 15014KT 37/16 A2987 RMK A01 T03660160  RH  030%=      5-min Rain = 0
KWE1 070002Z 14011KT 37/16 A2988 RMK A01 T03660160  RH  030%=      5-min Rain = 0
KWE1 070003Z 15011KT 37/16 A2987 RMK A01 T03660161  RH  030%=      5-min Rain = 0
KWE1 070004Z 15008KT 37/16 A2987 RMK A01 T03660161  RH  030%=      5-min Rain = 0
KWE1 070005Z 15009KT 37/16 A2987 RMK A01 T03670162  RH  030%=      5-min Rain = 0
KWE1 070006Z 15010G16KT 37/16 A2987 RMK A01 T03670161  RH  029%=      5-min Rain = 0
KWE1 070007Z 15011KT 37/16 A2987 RMK A01 T03670160  RH  029%=      5-min Rain = 0
KWE1 070008Z 15009KT 37/16 A2987 RMK A01 T03670160  RH  029%=      5-min Rain = 0
KWE1 070009Z 15009KT 37/16 A2987 RMK A01 T03670160  RH  029%=      5-min Rain = 0
KWE1 070010Z 15009KT 37/16 A2987 RMK A01 T03680161  RH  029%=      5-min Rain = 0
KWE1 070011Z 15010KT 37/16 A2987 RMK A01 T03670161  RH  030%=      5-min Rain = 0
KWE1 070012Z 14011KT 37/16 A2987 RMK A01 T03670160  RH  029%=      5-min Rain = 0
KWE1 070013Z 15012KT 37/16 A2987 RMK A01 T03670160  RH  029%=      5-min Rain = 0
KWE1 070014Z 14010KT 37/16 A2987 RMK A01 T03670160  RH  030%=      5-min Rain = 0
KWE1 070015Z 15010KT 37/16 A2987 RMK A01 T03660161  RH  030%=      5-min Rain = 0
KWE1 070016Z 14012KT 37/16 A2987 RMK A01 T03660161  RH  030%=      5-min Rain = 0
KWE1 070017Z 14009KT 37/16 A2987 RMK A01 T03660160  RH  030%=      5-min Rain = 0
KWE1 070018Z 14010KT 37/16 A2987 RMK A01 T03660161  RH  030%=      5-min Rain = 0
KWE1 070019Z 14009KT 37/16 A2987 RMK A01 T03660162  RH  030%=      5-min Rain = 0
KWE1 070020Z 14010KT 37/16 A2987 RMK A01 T03660161  RH  030%=      5-min Rain = 0
KWE1 070021Z 14009KT 37/16 A2987 RMK A01 T03650161  RH  030%=      5-min Rain = 0
KWE1 070022Z 14010KT 37/16 A2987 RMK A01 T03650161  RH  030%=      5-min Rain = 0
KWE1 070023Z 14009KT 37/16 A2987 RMK A01 T03650160  RH  030%=      5-min Rain = 0
KWE1 070024Z 14009KT 37/16 A2987 RMK A01 T03650160  RH  030%=      5-min Rain = 0
KWE1 070025Z 15010KT 37/16 A2987 RMK A01 T03650160  RH  030%=      5-min Rain = 0
KWE1 070026Z 15011KT 37/16 A2987 RMK A01 T03650159  RH  030%=      5-min Rain = 0
KWE1 070027Z 14009KT 36/16 A2987 RMK A01 T03640160  RH  030%=      5-min Rain = 0
KWE1 070028Z 14009KT 37/16 A2987 RMK A01 T03650161  RH  030%=      5-min Rain = 0
KWE1 070029Z 13009KT 36/16 A2987 RMK A01 T03640161  RH  030%=      5-min Rain = 0
KWE1 070030Z 13008KT 36/16 A2987 RMK A01 T03640161  RH  030%=      5-min Rain = 0
KWE1 070031Z 14010KT 36/16 A2987 RMK A01 T03630161  RH  030%=      5-min Rain = 0
KWE1 070032Z 14008KT 36/16 A2987 RMK A01 T03630161  RH  030%=      5-min Rain = 0
KWE1 070033Z 14007KT 36/16 A2987 RMK A01 T03630162  RH  030%=      5-min Rain = 0
KWE1 070034Z 14008KT 36/16 A2987 RMK A01 T03630163  RH  031%=      5-min Rain = 0
KWE1 070035Z 14009KT 36/16 A2987 RMK A01 T03630162  RH  030%=      5-min Rain = 0
KWE1 070036Z 13010KT 36/16 A2987 RMK A01 T03620160  RH  030%=      5-min Rain = 0
KWE1 070037Z 13009KT 36/16 A2987 RMK A01 T03620160  RH  030%=      5-min Rain = 0
KWE1 070038Z 13009KT 36/16 A2987 RMK A01 T03620161  RH  030%=      5-min Rain = 0
KWE1 070039Z 13010KT 36/16 A2987 RMK A01 T03610160  RH  030%=      5-min Rain = 0
KWE1 070040Z 13010KT 36/16 A2987 RMK A01 T03610160  RH  030%=      5-min Rain = 0
KWE1 070041Z 14010KT 36/16 A2987 RMK A01 T03600160  RH  031%=      5-min Rain = 0
KWE1 070042Z 13009KT 36/16 A2987 RMK A01 T03600160  RH  031%=      5-min Rain = 0
KWE1 070043Z 13009KT 36/16 A2987 RMK A01 T03600160  RH  031%=      5-min Rain = 0
KWE1 070044Z 13011KT 36/16 A2987 RMK A01 T03590160  RH  031%=      5-min Rain = 0
KWE1 070045Z 12007KT 36/16 A2987 RMK A01 T03590160  RH  031%=      5-min Rain = 0
KWE1 070046Z 12006KT 36/16 A2987 RMK A01 T03590160  RH  031%=      5-min Rain = 0
KWE1 070047Z 12008KT 36/16 A2987 RMK A01 T03590160  RH  031%=      5-min Rain = 0
KWE1 070048Z 12009KT 36/16 A2987 RMK A01 T03580159  RH  031%=      5-min Rain = 0
KWE1 070049Z 12007KT 36/16 A2987 RMK A01 T03580160  RH  031%=      5-min Rain = 0
KWE1 070050Z 12008KT 36/16 A2987 RMK A01 T03580160  RH  031%=      5-min Rain = 0
KWE1 070051Z 13008KT 36/16 A2987 RMK A01 T03580160  RH  031%=      5-min Rain = 0
KWE1 070052Z 13007KT 36/16 A2987 RMK A01 T03570160  RH  031%=      5-min Rain = 0
KWE1 070053Z 12006KT 36/16 A2987 RMK A01 T03570159  RH  031%=      5-min Rain = 0
KWE1 070054Z 12007KT 36/16 A2987 RMK A01 T03570159  RH  031%=      5-min Rain = 0
KWE1 070055Z 13008KT 36/16 A2987 RMK A01 T03560160  RH  031%=      5-min Rain = 0
KWE1 070056Z 13007KT 36/16 A2987 RMK A01 T03560159  RH  031%=      5-min Rain = 0
KWE1 070057Z 13009KT 36/16 A2987 RMK A01 T03560159  RH  031%=      5-min Rain = 0
KWE1 070058Z 13008KT 36/16 A2987 RMK A01 T03550157  RH  031%=      5-min Rain = 0
KWE1 070059Z 13007KT 36/16 A2987 RMK A01 T03550157  RH  031%=      5-min Rain = 0
KWE1 070100Z 13005KT 36/16 A2987 RMK A01 T03550158  RH  031%=      5-min Rain = 0
KWE1 070101Z 13007KT 36/16 A2987 RMK A01 T03550159  RH  031%=      5-min Rain = 0
KWE1 070102Z 13006KT 35/16 A2987 RMK A01 T03540158  RH  031%=      5-min Rain = 0
KWE1 070103Z 13006KT 35/16 A2987 RMK A01 T03530158  RH  031%=      5-min Rain = 0
KWE1 070104Z 12006KT 35/16 A2987 RMK A01 T03530158  RH  031%=      5-min Rain = 0
KWE1 070105Z 12006KT 35/16 A2987 RMK A01 T03530158  RH  031%=      5-min Rain = 0
KWE1 070106Z 13006KT 35/16 A2987 RMK A01 T03520158  RH  032%=      5-min Rain = 0
KWE1 070107Z 13005KT 35/16 A2987 RMK A01 T03510159  RH  032%=      5-min Rain = 0
KWE1 070108Z 13007KT 35/16 A2987 RMK A01 T03500158  RH  032%=      5-min Rain = 0
KWE1 070109Z 12006KT 35/16 A2987 RMK A01 T03500158  RH  032%=      5-min Rain = 0
KWE1 070110Z 12006KT 35/16 A2987 RMK A01 T03500158  RH  032%=      5-min Rain = 0
KWE1 070111Z 12007KT 35/16 A2987 RMK A01 T03490158  RH  032%=      5-min Rain = 0
KWE1 070112Z 12007KT 35/16 A2987 RMK A01 T03480159  RH  032%=      5-min Rain = 0
KWE1 070113Z 12007KT 35/16 A2987 RMK A01 T03480159  RH  032%=      5-min Rain = 0
KWE1 070114Z 12006KT 35/16 A2987 RMK A01 T03480159  RH  033%=      5-min Rain = 0
KWE1 070115Z 12006KT 35/16 A2987 RMK A01 T03470160  RH  033%=      5-min Rain = 0
KWE1 070116Z 12006KT 35/16 A2987 RMK A01 T03460159  RH  033%=      5-min Rain = 0
KWE1 070117Z 12006KT 35/16 A2987 RMK A01 T03460159  RH  033%=      5-min Rain = 0
KWE1 070118Z 12006KT 35/16 A2987 RMK A01 T03450159  RH  033%=      5-min Rain = 0
KWE1 070119Z 12006KT 35/16 A2988 RMK A01 T03450159  RH  033%=      5-min Rain = 0
KWE1 070120Z 12005KT 35/16 A2988 RMK A01 T03450159  RH  033%=      5-min Rain = 0
KWE1 070121Z 12005KT 34/16 A2988 RMK A01 T03440159  RH  033%=      5-min Rain = 0
KWE1 070122Z 12005KT 34/16 A2988 RMK A01 T03430159  RH  033%=      5-min Rain = 0
KWE1 070123Z 12005KT 34/16 A2988 RMK A01 T03410159  RH  034%=      5-min Rain = 0
KWE1 070124Z 12005KT 34/16 A2988 RMK A01 T03400159  RH  034%=      5-min Rain = 0
KWE1 070125Z 12005KT 34/16 A2988 RMK A01 T03390159  RH  034%=      5-min Rain = 0
KWE1 070126Z 11005KT 34/16 A2988 RMK A01 T03380159  RH  034%=      5-min Rain = 0
KWE1 070127Z 11005KT 34/16 A2988 RMK A01 T03370159  RH  035%=      5-min Rain = 0
KWE1 070128Z 11005KT 34/16 A2988 RMK A01 T03360159  RH  035%=      5-min Rain = 0
KWE1 070129Z 11004KT 34/16 A2988 RMK A01 T03350159  RH  035%=      5-min Rain = 0
KWE1 070130Z 11004KT 33/16 A2988 RMK A01 T03340159  RH  035%=      5-min Rain = 0
KWE1 070131Z 11004KT 33/16 A2988 RMK A01 T03330159  RH  035%=      5-min Rain = 0
KWE1 070132Z 11004KT 33/16 A2988 RMK A01 T03320160  RH  036%=      5-min Rain = 0
KWE1 070133Z 11004KT 33/16 A2988 RMK A01 T03310160  RH  036%=      5-min Rain = 0
KWE1 070134Z 12005KT 33/16 A2988 RMK A01 T03300160  RH  036%=      5-min Rain = 0
KWE1 070135Z 11005KT 33/16 A2988 RMK A01 T03290160  RH  036%=      5-min Rain = 0
KWE1 070136Z 11005KT 33/16 A2988 RMK A01 T03280161  RH  037%=      5-min Rain = 0
KWE1 070137Z 11005KT 33/16 A2988 RMK A01 T03270162  RH  037%=      5-min Rain = 0
KWE1 070138Z 11005KT 33/16 A2988 RMK A01 T03270162  RH  037%=      5-min Rain = 0
KWE1 070139Z 11005KT 33/16 A2988 RMK A01 T03270162  RH  037%=      5-min Rain = 0
KWE1 070140Z 12005KT 33/16 A2988 RMK A01 T03260163  RH  037%=      5-min Rain = 0
KWE1 070141Z 13005KT 33/16 A2988 RMK A01 T03250162  RH  038%=      5-min Rain = 0
KWE1 070142Z 13004KT 33/16 A2988 RMK A01 T03250163  RH  038%=      5-min Rain = 0
KWE1 070143Z 13004KT 33/16 A2988 RMK A01 T03250164  RH  038%=      5-min Rain = 0
KWE1 070144Z 13005KT 32/16 A2988 RMK A01 T03240164  RH  038%=      5-min Rain = 0
KWE1 070145Z 12005KT 32/16 A2988 RMK A01 T03240164  RH  038%=      5-min Rain = 0
KWE1 070146Z 13006KT 32/16 A2988 RMK A01 T03240164  RH  038%=      5-min Rain = 0
KWE1 070147Z 13006KT 33/16 A2988 RMK A01 T03250164  RH  038%=      5-min Rain = 0
KWE1 070148Z 14007KT 33/16 A2988 RMK A01 T03250164  RH  038%=      5-min Rain = 0
KWE1 070149Z 13007KT 33/16 A2988 RMK A01 T03260163  RH  038%=      5-min Rain = 0
KWE1 070150Z 14006KT 33/16 A2988 RMK A01 T03270164  RH  038%=      5-min Rain = 0
KWE1 070151Z 13007KT 33/16 A2988 RMK A01 T03270163  RH  038%=      5-min Rain = 0
KWE1 070152Z 13007KT 33/16 A2988 RMK A01 T03270163  RH  038%=      5-min Rain = 0
KWE1 070153Z 14006KT 33/16 A2988 RMK A01 T03270163  RH  038%=      5-min Rain = 0
KWE1 070154Z 14007KT 33/16 A2989 RMK A01 T03270164  RH  038%=      5-min Rain = 0
KWE1 070155Z 14006KT 33/16 A2989 RMK A01 T03260163  RH  038%=      5-min Rain = 0
KWE1 070156Z 14007KT 33/16 A2989 RMK A01 T03250162  RH  038%=      5-min Rain = 0
KWE1 070157Z 15006KT 33/16 A2989 RMK A01 T03250161  RH  037%=      5-min Rain = 0
KWE1 070158Z 15006KT 33/16 A2989 RMK A01 T03250161  RH  037%=      5-min Rain = 0
KWE1 070159Z 14007KT 33/16 A2989 RMK A01 T03250160  RH  037%=      5-min Rain = 0
KWE1 070200Z 14007KT 33/16 A2989 RMK A01 T03250160  RH  037%=      5-min Rain = 0
KWE1 070201Z 14008KT 33/16 A2989 RMK A01 T03250159  RH  037%=      5-min Rain = 0
KWE1 070202Z 14008KT 33/16 A2989 RMK A01 T03270157  RH  036%=      5-min Rain = 0
KWE1 070203Z 15008KT 33/16 A2989 RMK A01 T03280157  RH  036%=      5-min Rain = 0
KWE1 070204Z 15007KT 33/16 A2989 RMK A01 T03290157  RH  036%=      5-min Rain = 0
KWE1 070205Z 15008KT 33/16 A2989 RMK A01 T03290156  RH  035%=      5-min Rain = 0
KWE1 070206Z 15008KT 33/16 A2989 RMK A01 T03290155  RH  035%=      5-min Rain = 0
KWE1 070207Z 15009KT 33/15 A2989 RMK A01 T03300154  RH  035%=      5-min Rain = 0
KWE1 070208Z 15009KT 33/15 A2989 RMK A01 T03310153  RH  034%=      5-min Rain = 0
KWE1 070209Z 15009KT 33/15 A2989 RMK A01 T03320152  RH  034%=      5-min Rain = 0
KWE1 070210Z 15009KT 33/15 A2989 RMK A01 T03320151  RH  034%=      5-min Rain = 0
KWE1 070211Z 15009KT 33/15 A2989 RMK A01 T03330152  RH  034%=      5-min Rain = 0
KWE1 070212Z 15009KT 33/15 A2989 RMK A01 T03330152  RH  034%=      5-min Rain = 0
KWE1 070213Z 15009KT 33/15 A2989 RMK A01 T03330152  RH  034%=      5-min Rain = 0
KWE1 070214Z 15009KT 33/15 A2989 RMK A01 T03320151  RH  034%=      5-min Rain = 0
KWE1 070215Z 15009KT 33/15 A2989 RMK A01 T03320151  RH  034%=      5-min Rain = 0
KWE1 070216Z 16009KT 33/15 A2989 RMK A01 T03310151  RH  034%=      5-min Rain = 0
KWE1 070217Z 15009KT 33/15 A2989 RMK A01 T03310150  RH  034%=      5-min Rain = 0
KWE1 070218Z 16010KT 33/15 A2989 RMK A01 T03310149  RH  033%=      5-min Rain = 0
KWE1 070219Z 15011KT 33/15 A2989 RMK A01 T03310148  RH  033%=      5-min Rain = 0
KWE1 070220Z 16009KT 33/15 A2989 RMK A01 T03320148  RH  033%=      5-min Rain = 0
KWE1 070221Z 16010KT 33/15 A2989 RMK A01 T03320148  RH  033%=      5-min Rain = 0
KWE1 070222Z 15010KT 33/15 A2989 RMK A01 T03310148  RH  033%=      5-min Rain = 0
KWE1 070223Z 15009KT 33/15 A2989 RMK A01 T03310148  RH  033%=      5-min Rain = 0
KWE1 070224Z 15009KT 33/15 A2989 RMK A01 T03300147  RH  033%=      5-min Rain = 0
KWE1 070225Z 16009KT 33/15 A2989 RMK A01 T03290147  RH  033%=      5-min Rain = 0
KWE1 070226Z 16010KT 33/15 A2989 RMK A01 T03280146  RH  033%=      5-min Rain = 0
KWE1 070227Z 15009KT 33/15 A2989 RMK A01 T03280145  RH  033%=      5-min Rain = 0
KWE1 070228Z 16009KT 33/15 A2989 RMK A01 T03280145  RH  033%=      5-min Rain = 0
KWE1 070229Z 15010KT 33/14 A299 RMK A01 T03290144  RH  033%=      5-min Rain = 0
KWE1 070230Z 16009KT 33/14 A299 RMK A01 T03290144  RH  033%=      5-min Rain = 0
KWE1 070231Z 16009KT 33/14 A299 RMK A01 T03290144  RH  033%=      5-min Rain = 0
KWE1 070232Z 16009KT 33/14 A299 RMK A01 T03290144  RH  033%=      5-min Rain = 0
KWE1 070233Z 16010KT 33/14 A299 RMK A01 T03290143  RH  033%=      5-min Rain = 0
KWE1 070234Z 16009KT 33/14 A299 RMK A01 T03290144  RH  033%=      5-min Rain = 0
KWE1 070235Z 15009KT 33/14 A299 RMK A01 T03290144  RH  033%=      5-min Rain = 0
KWE1 070236Z 16009KT 33/14 A299 RMK A01 T03290143  RH  033%=      5-min Rain = 0
KWE1 070237Z 16009KT 33/14 A299 RMK A01 T03290143  RH  033%=      5-min Rain = 0
KWE1 070238Z 16009KT 33/14 A299 RMK A01 T03290144  RH  033%=      5-min Rain = 0
KWE1 070239Z 15009KT 33/14 A299 RMK A01 T03280143  RH  033%=      5-min Rain = 0
KWE1 070240Z 16009KT 33/14 A299 RMK A01 T03280143  RH  033%=      5-min Rain = 0
KWE1 070241Z 16009KT 33/14 A299 RMK A01 T03280143  RH  033%=      5-min Rain = 0
KWE1 070242Z 16009KT 33/14 A299 RMK A01 T03280143  RH  033%=      5-min Rain = 0
KWE1 070243Z 16008KT 33/14 A299 RMK A01 T03290143  RH  032%=      5-min Rain = 0
KWE1 070244Z 16011KT 33/14 A299 RMK A01 T03290142  RH  032%=      5-min Rain = 0
KWE1 070245Z 16010KT 33/14 A299 RMK A01 T03300142  RH  032%=      5-min Rain = 0
KWE1 070246Z 16009KT 33/14 A299 RMK A01 T03310142  RH  032%=      5-min Rain = 0
KWE1 070247Z 16009KT 33/14 A299 RMK A01 T03310142  RH  032%=      5-min Rain = 0
KWE1 070248Z 16009KT 33/14 A299 RMK A01 T03310142  RH  032%=      5-min Rain = 0
KWE1 070249Z 16012KT 33/14 A299 RMK A01 T03310142  RH  032%=      5-min Rain = 0
KWE1 070250Z 16013KT 33/14 A299 RMK A01 T03330142  RH  032%=      5-min Rain = 0
KWE1 070251Z 16011KT 33/14 A299 RMK A01 T03340142  RH  031%=      5-min Rain = 0
KWE1 070252Z 16010KT 34/14 A299 RMK A01 T03350142  RH  031%=      5-min Rain = 0
KWE1 070253Z 16010KT 34/14 A299 RMK A01 T03350142  RH  031%=      5-min Rain = 0
KWE1 070254Z 16010KT 33/14 A299 RMK A01 T03340142  RH  031%=      5-min Rain = 0
KWE1 070255Z 16010G15KT 33/14 A299 RMK A01 T03340142  RH  032%=      5-min Rain = 0
KWE1 070256Z 16012KT 33/14 A299 RMK A01 T03340143  RH  032%=      5-min Rain = 0
KWE1 070257Z 16009KT 33/14 A2991 RMK A01 T03340142  RH  032%=      5-min Rain = 0
KWE1 070258Z 16010KT 33/14 A2991 RMK A01 T03330142  RH  032%=      5-min Rain = 0
KWE1 070259Z 16010KT 33/14 A2991 RMK A01 T03320142  RH  032%=      5-min Rain = 0
KWE1 070300Z 16009KT 33/14 A2991 RMK A01 T03320142  RH  032%=      5-min Rain = 0
KWE1 070301Z 16010KT 33/14 A2991 RMK A01 T03310142  RH  032%=      5-min Rain = 0
KWE1 070302Z 16010KT 33/14 A299 RMK A01 T03300142  RH  032%=      5-min Rain = 0
KWE1 070303Z 16009KT 33/14 A299 RMK A01 T03290142  RH  032%=      5-min Rain = 0
KWE1 070304Z 16010KT 33/14 A299 RMK A01 T03290142  RH  032%=      5-min Rain = 0
KWE1 070305Z 17011KT 33/14 A299 RMK A01 T03290142  RH  032%=      5-min Rain = 0
KWE1 070306Z 16009KT 33/14 A299 RMK A01 T03290142  RH  032%=      5-min Rain = 0
KWE1 070307Z 16010KT 33/14 A299 RMK A01 T03290142  RH  032%=      5-min Rain = 0
KWE1 070308Z 16009KT 33/14 A299 RMK A01 T03280142  RH  033%=      5-min Rain = 0
KWE1 070309Z 16010KT 33/14 A2991 RMK A01 T03270142  RH  033%=      5-min Rain = 0
KWE1 070310Z 16011KT 33/14 A2991 RMK A01 T03270142  RH  033%=      5-min Rain = 0
KWE1 070311Z 16009KT 33/14 A2991 RMK A01 T03280142  RH  033%=      5-min Rain = 0
KWE1 070312Z 16010KT 33/14 A2991 RMK A01 T03280142  RH  032%=      5-min Rain = 0
KWE1 070313Z 16010KT 33/14 A2991 RMK A01 T03280142  RH  032%=      5-min Rain = 0
KWE1 070314Z 16010KT 33/14 A2991 RMK A01 T03280142  RH  032%=      5-min Rain = 0
KWE1 070315Z 16011KT 33/14 A2991 RMK A01 T03280142  RH  032%=      5-min Rain = 0
KWE1 070316Z 16010KT 33/14 A2991 RMK A01 T03280142  RH  032%=      5-min Rain = 0
KWE1 070317Z 16010KT 33/14 A2991 RMK A01 T03280142  RH  033%=      5-min Rain = 0
KWE1 070318Z 16011KT 33/14 A2991 RMK A01 T03270142  RH  033%=      5-min Rain = 0
KWE1 070319Z 16011KT 33/14 A2991 RMK A01 T03270142  RH  033%=      5-min Rain = 0
KWE1 070320Z 16011KT 33/14 A2991 RMK A01 T03270142  RH  033%=      5-min Rain = 0
KWE1 070321Z 16010KT 33/14 A2991 RMK A01 T03280142  RH  033%=      5-min Rain = 0
KWE1 070322Z 16011KT 33/14 A2991 RMK A01 T03280142  RH  033%=      5-min Rain = 0
KWE1 070323Z 17012KT 33/14 A2991 RMK A01 T03270142  RH  033%=      5-min Rain = 0
KWE1 070324Z 16010KT 33/14 A2991 RMK A01 T03270142  RH  033%=      5-min Rain = 0
KWE1 070325Z 16010KT 33/14 A2991 RMK A01 T03270142  RH  033%=      5-min Rain = 0
KWE1 070326Z 16011KT 33/14 A2991 RMK A01 T03260142  RH  033%=      5-min Rain = 0
KWE1 070327Z 16011G17KT 33/14 A2991 RMK A01 T03250142  RH  033%=      5-min Rain = 0
KWE1 070328Z 16011KT 33/14 A2991 RMK A01 T03250142  RH  033%=      5-min Rain = 0
KWE1 070329Z 16010KT 33/14 A2991 RMK A01 T03260142  RH  033%=      5-min Rain = 0
KWE1 070330Z 16011KT 33/14 A2991 RMK A01 T03260142  RH  033%=      5-min Rain = 0
KWE1 070331Z 16010KT 33/14 A2991 RMK A01 T03250142  RH  033%=      5-min Rain = 0
KWE1 070332Z 16009KT 32/14 A2991 RMK A01 T03240142  RH  033%=      5-min Rain = 0
KWE1 070333Z 16010KT 32/14 A2991 RMK A01 T03230142  RH  033%=      5-min Rain = 0
KWE1 070334Z 16011KT 32/14 A2991 RMK A01 T03230142  RH  034%=      5-min Rain = 0
KWE1 070335Z 16011KT 32/14 A2991 RMK A01 T03220142  RH  034%=      5-min Rain = 0
KWE1 070336Z 16011KT 32/14 A2991 RMK A01 T03220142  RH  034%=      5-min Rain = 0
KWE1 070337Z 16011KT 32/14 A2991 RMK A01 T03220142  RH  034%=      5-min Rain = 0
KWE1 070338Z 16010KT 32/14 A299 RMK A01 T03220142  RH  034%=      5-min Rain = 0
KWE1 070339Z 16012KT 32/14 A299 RMK A01 T03220142  RH  034%=      5-min Rain = 0
KWE1 070340Z 17011KT 32/14 A299 RMK A01 T03220142  RH  034%=      5-min Rain = 0
KWE1 070341Z 16011KT 32/14 A299 RMK A01 T03220142  RH  034%=      5-min Rain = 0
KWE1 070342Z 16010KT 32/14 A299 RMK A01 T03210142  RH  034%=      5-min Rain = 0
KWE1 070343Z 16011KT 32/14 A299 RMK A01 T03210142  RH  034%=      5-min Rain = 0
KWE1 070344Z 16011KT 32/14 A299 RMK A01 T03200142  RH  034%=      5-min Rain = 0
KWE1 070345Z 16013G18KT 32/14 A2991 RMK A01 T03200142  RH  034%=      5-min Rain = 0
KWE1 070346Z 16010KT 32/14 A2991 RMK A01 T03200142  RH  034%=      5-min Rain = 0
KWE1 070347Z 16011KT 32/14 A2991 RMK A01 T03210143  RH  034%=      5-min Rain = 0
KWE1 070348Z 16010KT 32/14 A2991 RMK A01 T03210142  RH  034%=      5-min Rain = 0
KWE1 070349Z 16010KT 32/14 A2991 RMK A01 T03200142  RH  034%=      5-min Rain = 0
KWE1 070350Z 17009KT 32/14 A2991 RMK A01 T03200142  RH  034%=      5-min Rain = 0
KWE1 070351Z 17011KT 32/14 A2991 RMK A01 T03200142  RH  034%=      5-min Rain = 0
KWE1 070352Z 17011G16KT 32/14 A2991 RMK A01 T03190142  RH  034%=      5-min Rain = 0
KWE1 070353Z 16011KT 32/14 A2991 RMK A01 T03200142  RH  034%=      5-min Rain = 0
KWE1 070354Z 16009KT 32/14 A2991 RMK A01 T03200142  RH  034%=      5-min Rain = 0
KWE1 070355Z 17009KT 32/14 A2991 RMK A01 T03200142  RH  034%=      5-min Rain = 0
KWE1 070356Z 17009KT 32/14 A2991 RMK A01 T03190142  RH  034%=      5-min Rain = 0
KWE1 070357Z 17009KT 32/14 A2991 RMK A01 T03180142  RH  034%=      5-min Rain = 0
KWE1 070358Z 17008KT 32/14 A2991 RMK A01 T03170142  RH  035%=      5-min Rain = 0
KWE1 070359Z 17009KT 32/14 A2991 RMK A01 T03150142  RH  035%=      5-min Rain = 0
KWE1 070400Z 17010KT 31/14 A2991 RMK A01 T03140142  RH  035%=      5-min Rain = 0
KWE1 070401Z 17009KT 31/14 A2991 RMK A01 T03130142  RH  035%=      5-min Rain = 0
KWE1 070402Z 17011KT 31/14 A2991 RMK A01 T03120142  RH  036%=      5-min Rain = 0
KWE1 070403Z 17011KT 31/14 A2991 RMK A01 T03120142  RH  036%=      5-min Rain = 0
KWE1 070404Z 17011KT 31/14 A2991 RMK A01 T03120142  RH  036%=      5-min Rain = 0
KWE1 070405Z 17010KT 31/14 A2991 RMK A01 T03120142  RH  036%=      5-min Rain = 0
KWE1 070406Z 17010KT 31/14 A2991 RMK A01 T03120142  RH  036%=      5-min Rain = 0
KWE1 070407Z 17011KT 31/14 A2991 RMK A01 T03110142  RH  036%=      5-min Rain = 0
KWE1 070408Z 17010KT 31/14 A2991 RMK A01 T03110142  RH  036%=      5-min Rain = 0
KWE1 070409Z 17011KT 31/14 A2991 RMK A01 T03110142  RH  036%=      5-min Rain = 0
KWE1 070410Z 16011KT 31/14 A2991 RMK A01 T03110142  RH  036%=      5-min Rain = 0
KWE1 070411Z 17009KT 31/14 A2991 RMK A01 T03110142  RH  036%=      5-min Rain = 0
KWE1 070412Z 17010KT 31/14 A2991 RMK A01 T03110142  RH  036%=      5-min Rain = 0
KWE1 070413Z 17010KT 31/14 A2991 RMK A01 T03100142  RH  036%=      5-min Rain = 0
KWE1 070414Z 17012KT 31/14 A2991 RMK A01 T03100142  RH  036%=      5-min Rain = 0
KWE1 070415Z 17011KT 31/14 A2991 RMK A01 T03100142  RH  036%=      5-min Rain = 0
KWE1 070416Z 17011KT 31/14 A2991 RMK A01 T03100142  RH  036%=      5-min Rain = 0
KWE1 070417Z 17013KT 31/14 A2991 RMK A01 T03110142  RH  036%=      5-min Rain = 0
KWE1 070418Z 17011KT 31/14 A2991 RMK A01 T03120142  RH  036%=      5-min Rain = 0
KWE1 070419Z 17012KT 31/14 A2991 RMK A01 T03120141  RH  035%=      5-min Rain = 0
KWE1 070420Z 17013KT 31/14 A2991 RMK A01 T03120141  RH  035%=      5-min Rain = 0
KWE1 070421Z 17013KT 31/14 A2991 RMK A01 T03120141  RH  035%=      5-min Rain = 0
KWE1 070422Z 17011KT 31/14 A2991 RMK A01 T03130141  RH  035%=      5-min Rain = 0
KWE1 070423Z 17012KT 31/14 A2991 RMK A01 T03130141  RH  035%=      5-min Rain = 0
KWE1 070424Z 17012KT 31/14 A2991 RMK A01 T03130141  RH  035%=      5-min Rain = 0
KWE1 070425Z 17012KT 31/14 A2991 RMK A01 T03130141  RH  035%=      5-min Rain = 0
KWE1 070426Z 17011KT 31/14 A2991 RMK A01 T03120142  RH  035%=      5-min Rain = 0
KWE1 070427Z 17012KT 31/14 A2991 RMK A01 T03120142  RH  036%=      5-min Rain = 0
KWE1 070428Z 17012KT 31/14 A2991 RMK A01 T03120142  RH  036%=      5-min Rain = 0
KWE1 070429Z 17012KT 31/14 A2991 RMK A01 T03110142  RH  036%=      5-min Rain = 0
KWE1 070430Z 17011KT 31/14 A2991 RMK A01 T03110142  RH  036%=      5-min Rain = 0
KWE1 070431Z 17011KT 31/14 A2991 RMK A01 T03100142  RH  036%=      5-min Rain = 0
KWE1 070432Z 17011KT 31/14 A2991 RMK A01 T03100142  RH  036%=      5-min Rain = 0
KWE1 070433Z 17012KT 31/14 A2991 RMK A01 T03090142  RH  036%=      5-min Rain = 0
KWE1 070434Z 17011KT 31/14 A2991 RMK A01 T03090142  RH  036%=      5-min Rain = 0
KWE1 070435Z 17012KT 31/14 A2991 RMK A01 T03090143  RH  036%=      5-min Rain = 0
KWE1 070436Z 17012KT 31/14 A2991 RMK A01 T03080142  RH  036%=      5-min Rain = 0
KWE1 070437Z 17011KT 31/14 A2991 RMK A01 T03080143  RH  037%=      5-min Rain = 0
KWE1 070438Z 18011KT 31/14 A2991 RMK A01 T03070143  RH  037%=      5-min Rain = 0
KWE1 070439Z 17011KT 31/14 A2991 RMK A01 T03060143  RH  037%=      5-min Rain = 0
KWE1 070440Z 17011KT 31/14 A2991 RMK A01 T03050144  RH  037%=      5-min Rain = 0
KWE1 070441Z 18011KT 30/14 A2991 RMK A01 T03040143  RH  038%=      5-min Rain = 0
KWE1 070442Z 17012KT 30/14 A2991 RMK A01 T03040144  RH  038%=      5-min Rain = 0
KWE1 070443Z 17010KT 30/14 A2991 RMK A01 T03030144  RH  038%=      5-min Rain = 0
KWE1 070444Z 17012KT 30/14 A2991 RMK A01 T03030144  RH  038%=      5-min Rain = 0
KWE1 070445Z 18010KT 30/14 A2991 RMK A01 T03030144  RH  038%=      5-min Rain = 0
KWE1 070446Z 17011KT 30/14 A2991 RMK A01 T03040144  RH  038%=      5-min Rain = 0
KWE1 070447Z 17011KT 30/14 A2991 RMK A01 T03030144  RH  038%=      5-min Rain = 0
KWE1 070448Z 17011KT 30/14 A2991 RMK A01 T03030144  RH  038%=      5-min Rain = 0
KWE1 070449Z 17011KT 30/15 A2991 RMK A01 T03030145  RH  038%=      5-min Rain = 0
KWE1 070450Z 17011KT 30/14 A2991 RMK A01 T03020144  RH  038%=      5-min Rain = 0
KWE1 070451Z 18011KT 30/14 A2991 RMK A01 T03020144  RH  038%=      5-min Rain = 0
KWE1 070452Z 17012KT 30/14 A2991 RMK A01 T03020144  RH  038%=      5-min Rain = 0
KWE1 070453Z 17011KT 30/14 A2991 RMK A01 T03010144  RH  038%=      5-min Rain = 0
KWE1 070454Z 17012KT 30/14 A2991 RMK A01 T03010143  RH  038%=      5-min Rain = 0
KWE1 070455Z 17012KT 30/14 A2991 RMK A01 T03020144  RH  038%=      5-min Rain = 0
KWE1 070456Z 17011KT 30/14 A2991 RMK A01 T03020144  RH  038%=      5-min Rain = 0
KWE1 070457Z 17012KT 30/14 A2991 RMK A01 T03020144  RH  038%=      5-min Rain = 0
KWE1 070458Z 17012KT 30/14 A2991 RMK A01 T03010143  RH  038%=      5-min Rain = 0
KWE1 070459Z 17013KT 30/14 A2991 RMK A01 T03010144  RH  038%=      5-min Rain = 0

Page generated in 0.0641 seconds.